Calls for Service

Disclaimer: This information is not intended to be used as official crime data. This program does not provide information about all crimes, and excludes specific incidents such as sexual assaults and child abuse. The City of Conway Police Department makes every effort to produce and publish current and accurate information. No warranties, expressed or implied, are provided for the data herein, its use, or its interpretation. The services provided are for informational purposes only and should not be relied on for any type of legal action.

Loading calls...
Showing calls from previous 10 days
Call Number Case Number Address Call Time Incident Type
17-0904805 17-11772 2225 PRINCE ST 2017-09-25 11:15:14.313 ACCIDENT - PRIVATE PROPERTY
17-0904800 1520 WILLOW CREEK CV 2017-09-25 11:00:16.410 ALARM
17-0904799 2905 PRINCE ST 2017-09-25 10:55:41.153 SUPPLEMENT REPORT CALL
17-0904795 4325 FREEDOM DR 2017-09-25 10:43:00.990 AGENCY ASSIST
17-0904794 1150 MUSEUM RD 2017-09-25 10:41:58.967 ATTEMPT TO CONTACT
17-0904791 17-11769 2300 PRINCE ST 2017-09-25 10:36:10.087 DISORDERLY CONDUCT
17-0904784 1005 CHAMPIONS DR 2017-09-25 10:16:55.530 ALARM
17-0904774 1 TIMBERLANE TRL 2017-09-25 09:50:57.340 SUSPICIOUS PERSON
17-0904773 2017-09-25 09:49:41.607 MISDEMEANOR WARRANT SERVICE
17-0904770 17-11771 2275 MOIX BLVD 2017-09-25 09:40:53.237 BURGLARY
17-0904768 1370 STURGIS RD 2017-09-25 09:35:41.383 ATTEMPT TO CONTACT
17-0904764 17-11767 1080 PAT'S LN 2017-09-25 09:18:11.830 THEFT OF PROPERTY
17-0904763 1157 FORREST LN 2017-09-25 09:17:12.423 SERVING SUBPOENA
17-0904758 1310 CLIFTON ST 2017-09-25 09:00:19.430 REPOSSESSION
17-0904755 17-11768 2501 DAVE WARD DR 2017-09-25 08:52:22.250 HARASSMENT
17-0904753 132 EVE LN 2017-09-25 08:50:00.410 ATTEMPT TO CONTACT
17-0904751 17-11764 1115 CLARENCE DR 2017-09-25 08:42:35.730 THEFT OF VEHICLE
17-0904750 17-11765 1090 SKYLINE DR 2017-09-25 08:42:14.407 MISDEMEANOR WARRANT SERVICE
17-0904748 17-11763 475 ROBINS ST 2017-09-25 08:34:36.443 CRIMINAL MISCHIEF
17-0904744 17-11762 905 SKYLINE DR 2017-09-25 08:15:01.163 THEFT OF PROPERTY
17-0904743 17-11761 505 DAVE WARD DR 2017-09-25 08:12:39.310 FRAUD
17-0904738 17-11760 1001 DONAGHEY AV 2017-09-25 07:41:20.447 ACCIDENT - PROPERTY DAMAGE
17-0904737 1210 CLIFTON ST 2017-09-25 07:28:34.483 CHECKING VEHICLE
17-0904736 810 PARKWAY ST 2017-09-25 07:25:04.283 CHECKING PERSON
17-0904735 810 PARKWAY ST 2017-09-25 07:14:12.913 CHECK ON THE WELFARE
17-0904732 17-11759 1400 E DAVE WARD DR 2017-09-25 06:49:18.390 FOUND PROPERTY
17-0904731 410 ELSINGER BLVD 2017-09-25 06:33:35.413 ALARM
17-0904730 17-11758 1306 OAK ST 2017-09-25 05:44:32.383 ACCIDENT - PROPERTY DAMAGE
17-0904729 2302 COLLEGE AV 2017-09-25 05:24:26.437 SUSPICIOUS VEHICLE
17-0904728 1155 SKYLINE DR 2017-09-25 04:03:28.380 CHECKING VEHICLE
17-0904727 1307 COLLIER DR 2017-09-25 03:31:00.707 CHECK ON THE WELFARE
17-0904725 17-11757 475 ROBINS ST 2017-09-25 03:10:29.593 ASSAULT
17-0904724 4470 THOMPSON ST 2017-09-25 03:07:38.490 SUSPICIOUS PERSON
17-0904723 2280 SANDERS ST 2017-09-25 02:01:29.930 PURSUIT DRILL
17-0904720 1605 QUAIL CREEK DR 2017-09-25 01:30:45.337 LOUD NOISE-MUSIC
17-0904719 20 KINLEY DR 2017-09-25 01:26:21.440 CHECKING VEHICLE
17-0904718 215 ROBINS ST 2017-09-25 01:25:41.380 OPEN DOOR/WINDOW/FENCE
17-0904717 1430 RACHEL DR 2017-09-25 01:07:44.910 CHECKING VEHICLE
17-0904716 2302 COLLEGE AV 2017-09-25 01:07:18.407 CITIZEN ASSIST
17-0904715 2010 CLEVELAND AV 2017-09-25 01:05:54.753 CHECKING PERSON
17-0904710 17-11755 702 OAK ST 2017-09-25 00:21:34.390 CHECKING PERSON
17-0904709 600 INGRAM ST 2017-09-25 00:07:53.647 CHECKING PERSON
17-0904708 475 ROBINS ST 2017-09-25 00:02:36.323 CHECKING PERSON
17-0904707 17-11754 600 SOUTH GERMAN LN 2017-09-24 23:58:06.227 MISDEMEANOR WARRANT SERVICE
17-0904705 475 ROBINS ST 2017-09-24 23:48:08.413 CHECKING PERSON
17-0904703 855 SALEM RD 2017-09-24 23:27:56.457 CHECKING VEHICLE
17-0904702 260 SALEM RD 2017-09-24 23:25:39.227 CHECKING VEHICLE
17-0904700 452 6TH ST 2017-09-24 23:14:11.727 CHECKING PERSON
17-0904699 2420 BROADVIEW AV 2017-09-24 23:10:02.050 CHECKING VEHICLE
17-0904697 955 SOUTH GERMAN LN 2017-09-24 22:43:22.997 CHECK ON THE WELFARE
17-0904696 512 4TH ST 2017-09-24 22:40:25.957 AGENCY ASSIST
17-0904690 1001 MCNUTT RD 2017-09-24 21:59:18.323 DOMESTIC DISTURBANCE
17-0904687 39 KENSINGTON DR 2017-09-24 21:05:29.733 ALARM
17-0904686 17-11751 1620 MIDDLE RD 2017-09-24 20:55:01.537 DOMESTIC DISTURBANCE
17-0904683 5300 SANSON DR 2017-09-24 20:07:39.720 FELONY WARRANT SERVICE
17-0904682 900 SOUTH GERMAN LN 2017-09-24 20:00:15.697 CHECK ON THE WELFARE
17-0904681 1025 S DONAGHEY AV 2017-09-24 19:49:07.660 ROAD RAGE
17-0904680 646 S HARKRIDER DR 2017-09-24 19:44:07.593 TRESPASSING
17-0904679 475 ROBINS ST 2017-09-24 19:35:21.653 DOMESTIC DISTURBANCE
17-0904678 5300 SANSON DR 2017-09-24 19:26:15.237 ATTEMPT TO CONTACT
17-0904676 1601 HOGAN LN 2017-09-24 19:22:03.140 CRIMINAL MISCHIEF
17-0904673 2017-09-24 19:03:33.343 ATTEMPT TO CONTACT
17-0904672 2625 GLOHAVEN DR 2017-09-24 18:51:35.553 PARKING VIOLATION
17-0904671 2455 DONAGHEY AV 2017-09-24 18:45:29.753 TRESPASSING
17-0904670 1250 S AMITY RD 2017-09-24 18:43:33.550 ALARM
17-0904668 2101 TYLER ST 2017-09-24 18:24:46.023 TRAFFIC PROBLEM-CONTROL
17-0904667 17-11750 1155 STEEL AV 2017-09-24 18:24:07.443 ACCIDENT - PERSONAL INJURY
17-0904666 1821 JOHNSTON AV 2017-09-24 18:16:38.910 DISCHARGING FIREWORKS
17-0904663 601 ELSINGER BLVD 2017-09-24 17:57:23.493 CHECK ON THE WELFARE
17-0904660 1420 ROBINS ST 2017-09-24 17:21:40.907 TERRORISTIC THREATENING
17-0904659 1901 E OAK ST 2017-09-24 17:19:10.400 ROAD RAGE
17-0904658 2712 TIMBERPEG CT 2017-09-24 17:16:54.277 BURGLARY
17-0904657 380 HARKRIDER ST 2017-09-24 17:14:43.867 THEFT OF VEHICLE
17-0904656 17-11748 600 SKYLINE DR 2017-09-24 17:01:33.407 ACCIDENT - PROPERTY DAMAGE
17-0904655 17-11747 1001 HARKRIDER ST 2017-09-24 16:42:58.417 ACCIDENT - PROPERTY DAMAGE
17-0904654 17-11746 1105 PRAIRIE ST 2017-09-24 16:39:42.850 PROPERTY DAMAGE
17-0904653 2901 COLLEGE AV 2017-09-24 16:24:59.617 SUPPLEMENT REPORT CALL
17-0904651 475 ROBINS ST 2017-09-24 16:19:51.630 CHECK ON THE WELFARE
17-0904650 1105 SKYLINE DR 2017-09-24 16:08:30.977 TRESPASSING
17-0904649 17-11745 300 MAPLE ST 2017-09-24 15:50:56.897 BATTERY REPORT
17-0904647 1035 FRENCH DR 2017-09-24 15:24:39.073 CIVIL MATTER
17-0904643 2204 STOUT ST 2017-09-24 15:03:59.477 SUPPLEMENT REPORT CALL
17-0904642 17-11744 3900 DAVE WARD DR 2017-09-24 14:56:20.550 ACCIDENT - PRIVATE PROPERTY
17-0904640 2930 ROBERT OTT CIR 2017-09-24 14:46:24.503 ALARM
17-0904639 17-11742 2901 COLLEGE AV 2017-09-24 14:43:16.423 ACCIDENT - PERSONAL INJURY
17-0904638 1100 E DAVE WARD DR 2017-09-24 14:41:19.700 RECKLESS DRIVER
17-0904637 475 ROBINS ST 2017-09-24 14:34:44.883 DOMESTIC DISTURBANCE
17-0904635 17-11743 2908 DICKENS CIR 2017-09-24 14:25:20.897 FRAUD
17-0904634 175 NIAGRA FALLS 2017-09-24 14:23:47.463 SUSPICIOUS VEHICLE
17-0904633 17-11741 1226 GUM ST 2017-09-24 13:57:38.013 TRESPASSING
17-0904632 1090 SKYLINE DR 2017-09-24 13:45:13.177 DISTURBANCE
17-0904630 17-11740 1155 SKYLINE DR 2017-09-24 13:38:53.930 ACCIDENT - PRIVATE PROPERTY
17-0904629 1895 DAVE WARD DR 2017-09-24 13:36:02.377 ALARM
17-0904628 435 2ND AV 2017-09-24 13:28:45.037 BARKING DOG COMPLAINT
17-0904626 2030 CALDWELL ST 2017-09-24 12:42:23.470 VEHICLE TOW
17-0904625 2017-09-24 12:40:00.753 ATTEMPT TO CONTACT
17-0904624 17-11739 3715 PRINCE ST 2017-09-24 12:21:31.343 CRIMINAL MISCHIEF
17-0904623 1555 ANGELINE DR 2017-09-24 12:10:52.753 ALARM
17-0904622 150 E SIEBENMORGEN RD 2017-09-24 12:00:46.503 ROAD RAGE
17-0904620 17-11738 2980 OLD MORRILTON HWY 2017-09-24 11:47:43.687 BATTERY REPORT
17-0904619 1052 HARRISON ST 2017-09-24 11:24:50.390 DISTURBANCE
17-0904618 831 NUTTERS CHAPEL RD 2017-09-24 11:20:20.707 LOUD NOISE-MUSIC
17-0904617 1555 EXCHANGE AV 2017-09-24 11:14:35.250 AGENCY ASSIST
17-0904616 1030 REGINA CV 2017-09-24 11:10:55.340 ALARM
17-0904615 17-11737 2900 ROBERT OTT CIR 2017-09-24 10:41:03.373 ATTEMPT TO CONTACT
17-0904614 175 NIAGRA FALLS 2017-09-24 10:24:45.350 SUSPICIOUS PERSON
17-0904613 17-11736 1418 HARDY ST 2017-09-24 10:20:38.450 ATTEMPT TO CONTACT
17-0904612 1105 PRAIRIE ST 2017-09-24 10:14:54.523 CIVIL MATTER
17-0904611 2780 SUMMERSET DR 2017-09-24 10:12:47.640 CRIMINAL MISCHIEF
17-0904610 1250 S AMITY RD 2017-09-24 10:05:20.797 ALARM
17-0904608 207 WILLOW ST 2017-09-24 09:53:04.437 HARASSMENT
17-0904603 2017-09-24 08:10:42.000 RECOVERED VEHICLE
17-0904600 1112 OAK ST 2017-09-24 07:35:17.617 VEHICLE TOW
17-0904599 1000 PRAIRIE ST 2017-09-24 07:24:16.060 PURSUIT DRILL
17-0904598 815 E OAK ST 2017-09-24 07:11:55.437 ATTEMPT TO CONTACT
17-0904597 924 FRONT ST 2017-09-24 07:04:55.530 VEHICLE TOW
17-0904596 2840 DAVE WARD DR 2017-09-24 05:22:17.880 CHECKING VEHICLE
17-0904594 1701 DAVE WARD DR 2017-09-24 04:23:15.800 REPOSSESSION
17-0904593 955 SOUTH GERMAN LN 2017-09-24 04:17:18.270 DOMESTIC DISTURBANCE
17-0904592 1051 HOGAN LN 2017-09-24 04:06:30.567 CHECKING VEHICLE
17-0904591 17-11735 410 ELSINGER BLVD 2017-09-24 03:37:09.893 CHECKING VEHICLE
17-0904590 17-11734 1230 GRANDVIEW HEIGHTS DR 2017-09-24 03:15:15.193 CHECKING VEHICLE
17-0904589 1 KENSINGTON DR 2017-09-24 02:59:39.780 CHECKING VEHICLE
17-0904588 835 S DONAGHEY AV 2017-09-24 02:56:06.623 DOMESTIC DISTURBANCE
17-0904587 1030 SKYLINE DR 2017-09-24 02:55:00.863 CHECKING VEHICLE
17-0904586 600 5TH AV 2017-09-24 02:53:37.760 CHECKING VEHICLE
17-0904585 500 FARRIS RD 2017-09-24 02:47:59.247 CHECKING VEHICLE
17-0904583 17-11733 500 SOUTH GERMAN LN 2017-09-24 02:36:36.930 MISDEMEANOR WARRANT SERVICE
17-0904582 800 S HARKRIDER DR 2017-09-24 02:32:08.057 BREAKING OR ENTERING
17-0904581 801 SCHERMAN OAKS CIR 2017-09-24 02:32:04.383 CHECKING VEHICLE
17-0904580 835 S DONAGHEY AV 2017-09-24 02:23:09.863 VEHICLE TOW
17-0904579 835 S DONAGHEY AV 2017-09-24 02:21:03.217 VEHICLE TOW
17-0904578 1405 E OAK ST 2017-09-24 02:20:01.733 CHECKING PERSON
17-0904577 1705 MEADOWLAKE RD 2017-09-24 02:19:26.510 CHECKING VEHICLE
17-0904576 17-11732 2730 DAVE WARD DR 2017-09-24 02:08:05.710 ACCIDENT - PRIVATE PROPERTY
17-0904575 1105 SKYLINE DR 2017-09-24 02:06:05.063 CHECKING PERSON
17-0904574 501 ELSINGER BLVD 2017-09-24 02:05:42.337 CHECKING VEHICLE
17-0904573 1010 E OAK ST 2017-09-24 01:53:46.760 CITIZEN ASSIST
17-0904572 2500 COLLEGE AV 2017-09-24 01:50:09.640 CHECKING BUILDING
17-0904571 2420 BROADVIEW AV 2017-09-24 01:48:17.763 RECKLESS DRIVER
17-0904570 375 MONROE ST 2017-09-24 01:45:00.763 CHECKING PERSON
17-0904569 10 LOWER RIDGE RD 2017-09-24 01:34:01.717 CHECKING PERSON
17-0904568 602 S DONAGHEY AV 2017-09-24 01:32:23.433 LOUD NOISE-MUSIC
17-0904567 20 KINLEY DR 2017-09-24 01:30:27.463 CHECKING VEHICLE
17-0904566 130 HARKRIDER ST 2017-09-24 01:24:16.920 DISTURBANCE
17-0904563 120 E OAK ST 2017-09-24 01:12:07.447 ALARM
17-0904560 835 S DONAGHEY AV 2017-09-24 00:54:52.633 LOUD NOISE-MUSIC
17-0904559 1715 E OAK ST 2017-09-24 00:51:16.280 RECKLESS DRIVER
17-0904558 1800 SOUTH BLVD 2017-09-24 00:49:59.937 CHECKING PERSON
17-0904557 1405 ROBINS ST 2017-09-24 00:43:35.707 CHECKING PERSON
17-0904556 515 HARKRIDER ST 2017-09-24 00:28:03.280 ALARM
17-0904555 270 S ASH ST 2017-09-24 00:15:10.300 ARMED SUBJECT
17-0904554 1901 E OAK ST 2017-09-24 00:13:36.590 RECKLESS DRIVER
17-0904552 701 POLK ST 2017-09-24 00:06:54.073 CHECKING PERSON
17-0904551 500 FARRIS RD 2017-09-24 00:03:29.890 CHECK ON THE WELFARE
17-0904549 1952 BRUCE ST 2017-09-23 23:54:55.710 CHECKING PERSON
17-0904548 475 ROBINS ST 2017-09-23 23:50:32.950 SUSPICIOUS PERSON
17-0904547 1750 VILLAGE COMMONS DR 2017-09-23 23:45:42.260 HARASSMENT
17-0904545 200 BARIDON ST 2017-09-23 23:37:12.593 CHECKING VEHICLE
17-0904544 17-11730 1002 E OAK ST 2017-09-23 23:20:42.090 TRESPASSING
17-0904543 17-11731 2050 DAVE WARD DR 2017-09-23 23:18:54.397 SHOTS FIRED
17-0904539 1901 E DAVE WARD DR 2017-09-23 22:57:49.280 CHECK ON THE WELFARE
17-0904537 610 4TH AV 2017-09-23 22:53:45.067 CHECKING PERSON
17-0904534 17-11729 9 PAMELA LN 2017-09-23 22:25:18.860 DOMESTIC DISTURBANCE
17-0904533 2505 E OAK ST 2017-09-23 22:20:02.620 ACCIDENT - PRIVATE PROPERTY
17-0904527 1306 S DONAGHEY AV 2017-09-23 21:36:50.947 SUSPICIOUS ACTIVITY
17-0904526 17-11727 4540 GRAHAM DR 2017-09-23 21:23:26.770 CRIMINAL MISCHIEF
17-0904524 1700 MUSEUM RD 2017-09-23 21:11:04.773 CHECKING PERSON
17-0904523 2325 DAVE WARD DR 2017-09-23 20:59:50.207 STALLED VEHICLE
17-0904521 2106 WEST ST 2017-09-23 20:56:10.000 RUNAWAY
17-0904520 800 PADGETT RD 2017-09-23 20:52:56.097 CHECKING VEHICLE
17-0904519 17-11725 4101 PRINCE ST 2017-09-23 20:52:12.020 ACCIDENT - PROPERTY DAMAGE
17-0904517 2050 DAVE WARD DR 2017-09-23 20:47:31.983 SHOPLIFTING
17-0904516 17-11728 2505 E OAK ST 2017-09-23 20:47:31.920 ACCIDENT - PRIVATE PROPERTY
17-0904513 2350 MARTHA DR 2017-09-23 20:38:59.877 SUSPICIOUS VEHICLE
17-0904512 102 OAK ST 2017-09-23 20:33:59.777 HARASSMENT
17-0904509 475 ROBINS ST 2017-09-23 20:04:02.780 BURGLARY
17-0904507 1000 EAST GERMAN LN 2017-09-23 20:02:49.597 RECKLESS DRIVER
17-0904505 1500 DECLARATION CV 2017-09-23 19:50:26.400 SUSPICIOUS VEHICLE
17-0904504 1095 SKYLINE DR 2017-09-23 19:38:27.943 ATTEMPT TO CONTACT
17-0904502 823 OAK ST 2017-09-23 19:28:04.700 CHECK ON THE WELFARE
17-0904501 17-11724 475 ROBINS ST 2017-09-23 19:21:01.107 DISTURBANCE
17-0904499 2505 E OAK ST 2017-09-23 19:13:45.130 TRAFFIC PROBLEM-CONTROL
17-0904498 1135 ASH ST 2017-09-23 19:05:56.330 911 HANGUP CALL
17-0904497 4605 WESCON LN 2017-09-23 18:50:50.650 ALARM
17-0904496 1915 RICH SMITH LN 2017-09-23 18:46:25.713 TRESPASSING
17-0904495 2730 DAVE WARD DR 2017-09-23 18:31:37.217 ALARM
17-0904494 1620 MIDDLE RD 2017-09-23 18:14:32.420 HARASSMENT
17-0904493 17-11722 2475 SAPPHIRE DR 2017-09-23 17:38:51.493 BATTERY REPORT
17-0904491 17-11720 1809 CLEVELAND AV 2017-09-23 17:12:06.210 THEFT OF PROPERTY
17-0904490 17-11721 150 E SIEBENMORGEN RD 2017-09-23 17:10:00.177 ABUSE
17-0904489 867 FENDLEY DR 2017-09-23 17:03:49.460 DOMESTIC DISTURBANCE
17-0904488 1201 OLD MORRILTON HWY 2017-09-23 17:00:35.067 CHECK ON THE WELFARE
17-0904487 219 MILL ST 2017-09-23 16:46:16.917 911 HANGUP CALL
17-0904486 17-11719 1930 RICH SMITH LN 2017-09-23 16:28:31.533 HARASSING COMMUNICATIONS
17-0904485 530 S DONAGHEY AV 2017-09-23 15:50:36.413 DOMESTIC DISTURBANCE
17-0904484 1024 MAIN ST 2017-09-23 15:48:27.103 ALARM
17-0904480 203 E OAK ST 2017-09-23 15:21:08.990 INTOXICATED DRIVER
17-0904478 2003 DONAGHEY AV 2017-09-23 14:39:52.653 ATTEMPT TO CONTACT
17-0904476 1200 E DAVE WARD DR 2017-09-23 14:22:34.433 TRAFFIC PROBLEM-CONTROL
17-0904475 201 SKYLINE DR 2017-09-23 14:20:44.270 PEDDLER
17-0904473 450 ROBINS ST 2017-09-23 14:01:25.400 THEFT OF PROPERTY
17-0904470 6 W J SOWDER DR 2017-09-23 13:21:23.273 ATTEMPT TO CONTACT
17-0904466 17-11714 1405 DAVE WARD DR 2017-09-23 12:57:43.393 ACCIDENT - PRIVATE PROPERTY
17-0904465 211 CLUB LN 2017-09-23 12:54:45.030 NO CONTACT ORDER VIOLATION
17-0904463 2475 SANDERS ST 2017-09-23 12:49:43.760 THEFT OF PROPERTY
17-0904462 1105 PRAIRIE ST 2017-09-23 12:47:25.903 ATTEMPT TO CONTACT
17-0904461 2003 DONAGHEY AV 2017-09-23 12:46:49.160 SUPPLEMENT REPORT CALL
17-0904459 2890 DAVE WARD DR 2017-09-23 12:38:16.420 ACCIDENT - PROPERTY DAMAGE
17-0904458 17-11712 850 OAK ST 2017-09-23 12:29:18.503 ACCIDENT - PROPERTY DAMAGE
17-0904457 3290 CHRYSLER CV 2017-09-23 12:24:03.150 ALARM
17-0904455 17-11711 1505 INDEPENDENCE ST 2017-09-23 11:50:16.293 HARASSING COMMUNICATIONS
17-0904451 17-11710 2400 PRINCE ST 2017-09-23 11:43:08.407 BREAKING OR ENTERING
17-0904450 17-11709 1155 SKYLINE DR 2017-09-23 11:33:50.780 SHOPLIFTING
17-0904449 475 ROBINS ST 2017-09-23 11:26:17.417 ATTEMPT TO CONTACT
17-0904448 17-11708 511 1ST ST 2017-09-23 11:24:49.700 BREAKING OR ENTERING
17-0904446 1105 PRAIRIE ST 2017-09-23 11:08:38.300 ATTEMPT TO CONTACT
17-0904445 450 SKYLINE DR 2017-09-23 11:00:07.227 CHECK ON THE WELFARE
17-0904441 523 DONAGHEY AV 2017-09-23 10:39:33.213 CIVIL MATTER
17-0904440 2235 RAINTREE DR 2017-09-23 10:35:21.527 SUPPLEMENT REPORT CALL
17-0904439 17-11707 1365 MITCHELL ST 2017-09-23 10:23:31.223 FRAUD
17-0904437 127 I40WB 2017-09-23 09:53:02.430 ARMED SUBJECT
17-0904435 17-11706 512 1ST ST 2017-09-23 09:47:41.820 BREAKING OR ENTERING
17-0904434 17-11704 1260 OLD MORRILTON HWY 2017-09-23 09:46:12.970 ACCIDENT - PROPERTY DAMAGE
17-0904433 750 AMITY RD 2017-09-23 09:38:51.953 CITIZEN ASSIST
17-0904432 4635 HARDWOOD DR 2017-09-23 09:36:42.540 ATTEMPT TO CONTACT
17-0904431 17-11703 245 FARRIS RD 2017-09-23 09:22:23.660 GAS DRIVE OFF
17-0904430 2421 COLLEGE AV 2017-09-23 09:07:44.230 LOST PROPERTY
17-0904429 130 GRAND FALLS 2017-09-23 09:01:40.533 SUPPLEMENT REPORT CALL
17-0904428 1902 SOUTH BLVD 2017-09-23 08:48:10.260 SUPPLEMENT REPORT CALL
17-0904427 2170 HARKRIDER ST 2017-09-23 08:44:29.660 ALARM
17-0904426 2100 CALDWELL ST 2017-09-23 08:38:03.203 CHECK ON THE WELFARE
17-0904424 1250 S AMITY RD 2017-09-23 08:24:28.483 ALARM
17-0904423 604 3RD AV 2017-09-23 08:20:17.433 BURGLARY
17-0904422 17-11702 1100 BOB COURTWAY DR 2017-09-23 08:19:43.833 ACCIDENT - PRIVATE PROPERTY
17-0904421 17-11700 520 1ST ST 2017-09-23 08:08:04.003 BREAKING OR ENTERING
17-0904420 17-11701 1902 SOUTH BLVD 2017-09-23 07:56:01.400 BREAKING OR ENTERING
17-0904418 5115 ROUND ROCK DR 2017-09-23 07:27:56.280 ALARM
17-0904416 17-11698 927 LOCUST AV 2017-09-23 06:46:10.483 THEFT OF VEHICLE
17-0904415 555 INGRAM ST 2017-09-23 06:42:42.193 BURGLARY
17-0904414 1465 ARAPAHO TRL 2017-09-23 06:33:47.417 ALARM
17-0904413 450 ROBINS ST 2017-09-23 06:29:37.590 MISSING PERSON
17-0904411 4550 OLD MORRILTON HWY 2017-09-23 06:06:01.407 ALARM
17-0904409 1290 S AMITY RD 2017-09-23 05:35:37.700 ALARM
17-0904408 2205 MAPLEWOOD DR 2017-09-23 05:26:39.673 UNKNOWN TROUBLE
17-0904407 600 SOUTH GERMAN LN 2017-09-23 05:11:18.760 CIVIL MATTER
17-0904406 701 REEDY RD 2017-09-23 04:53:32.837 AGENCY ASSIST
17-0904403 2840 DAVE WARD DR 2017-09-23 03:41:38.193 CHECKING VEHICLE
17-0904402 2370 SANDERS ST 2017-09-23 03:40:54.980 SUSPICIOUS ACTIVITY
17-0904398 115 HAYES ST 2017-09-23 02:52:47.213 SUSPICIOUS ACTIVITY
17-0904396 835 S DONAGHEY AV 2017-09-23 02:43:07.953 ATTEMPT TO CONTACT
17-0904394 835 S DONAGHEY AV 2017-09-23 02:22:20.187 SUSPICIOUS ACTIVITY
17-0904393 1931 MARTIN ST 2017-09-23 02:12:40.943 LOUD NOISE-MUSIC
17-0904392 300 S DONAGHEY AV 2017-09-23 02:10:51.040 LOUD NOISE-MUSIC
17-0904389 3900 DAVE WARD DR 2017-09-23 02:03:09.370 STALLED VEHICLE
17-0904388 1105 E OAK ST 2017-09-23 01:59:39.150 ALARM
17-0904386 1845 OLD MORRILTON HWY 2017-09-23 01:34:55.447 INTOXICATED PERSON
17-0904385 1405 S DONAGHEY AV 2017-09-23 01:34:25.623 DOMESTIC DISTURBANCE
17-0904384 17-11696 2400 MARKET PLAZA DR 2017-09-23 01:28:23.420 DOMESTIC DISTURBANCE
17-0904382 17-11695 4095 PRINCE ST 2017-09-23 01:04:03.527 CHECKING VEHICLE
17-0904381 835 S DONAGHEY AV 2017-09-23 00:54:19.883 SUPPLEMENT REPORT CALL
17-0904380 1201 HARKRIDER ST 2017-09-23 00:52:36.780 CHECKING PERSON
17-0904378 1775 OLD MORRILTON HWY 2017-09-23 00:43:33.587 FIGHT
17-0904377 1 CADRON SETTLEMENT PARK RD 2017-09-23 00:41:28.457 CHECKING VEHICLE
17-0904376 17-11692 835 S DONAGHEY AV 2017-09-23 00:24:02.340 CIVIL MATTER
17-0904375 17-11694 2235 RAINTREE DR 2017-09-23 00:15:14.250 RUNAWAY
17-0904374 311 OAK ST 2017-09-23 00:13:22.807 PROWLER
17-0904372 2201 LOOKOUT AV 2017-09-23 00:05:29.207 SUSPICIOUS ACTIVITY
17-0904371 385 CHEYENNE LN 2017-09-23 00:05:13.020 AGENCY ASSIST
17-0904369 2730 DAVE WARD DR 2017-09-23 00:03:36.963 DISTURBANCE
17-0904367 701 REEDY RD 2017-09-22 23:54:15.060 UNKNOWN TROUBLE
17-0904366 707 ROBINS ST 2017-09-22 23:52:25.337 CHECKING PERSON
17-0904365 17-11693 475 ROBINS ST 2017-09-22 23:49:23.877 CHECKING VEHICLE
17-0904364 500 AUGUSTA AV 2017-09-22 23:42:37.670 CHECKING PERSON
17-0904363 17-11691 835 S DONAGHEY AV 2017-09-22 23:40:14.220 ACCIDENT - PRIVATE PROPERTY
17-0904361 850 MILL ST 2017-09-22 23:34:15.527 CHECKING PERSON
17-0904360 1501 COLLEGE AV 2017-09-22 23:33:59.867 CITIZEN ASSIST
17-0904359 2101 ADA AV 2017-09-22 23:33:50.327 ATTEMPT TO CONTACT
17-0904357 500 SOUTH GERMAN LN 2017-09-22 23:18:47.580 MISDEMEANOR WARRANT SERVICE
17-0904355 305 BRUCE ST 2017-09-22 23:04:45.440 CHECKING PERSON
17-0904354 1002 E OAK ST 2017-09-22 22:54:56.297 INTOXICATED PERSON
17-0904353 201 SKYLINE DR 2017-09-22 22:49:14.940 SUPPLEMENT REPORT CALL
17-0904352 200 AMITY RD 2017-09-22 22:45:33.230 ALARM
17-0904351 17-11690 211 CLUB LN 2017-09-22 22:44:50.020 DOMESTIC DISTURBANCE
17-0904350 20 KINLEY DR 2017-09-22 22:42:23.987 ATTEMPT TO CONTACT
17-0904349 1701 HAIRSTON AV 2017-09-22 22:41:50.760 SUSPICIOUS VEHICLE
17-0904348 220 E OAK ST 2017-09-22 22:37:00.473 CHECKING PERSON
17-0904347 260 S ASH ST 2017-09-22 22:32:53.050 DOMESTIC DISTURBANCE
17-0904346 4001 OLD MORRILTON HWY 2017-09-22 22:17:25.370 RECKLESS DRIVER
17-0904345 2320 WASHINGTON AV 2017-09-22 22:12:31.570 CHECK ON THE WELFARE
17-0904344 501 ELSINGER BLVD 2017-09-22 22:09:16.747 CHECK ON THE WELFARE
17-0904343 500 SOUTH GERMAN LN 2017-09-22 22:07:14.473 ATTEMPT TO CONTACT
17-0904342 3900 DAVE WARD DR 2017-09-22 21:56:14.687 THEFT OF PROPERTY
17-0904340 1901 E DAVE WARD DR 2017-09-22 21:29:31.847 CHECK ON THE WELFARE
17-0904339 960 LOCUST AV 2017-09-22 21:27:44.327 CHECKING PERSON
17-0904338 801 S SALEM RD 2017-09-22 21:16:29.820 ATTEMPT TO CONTACT
17-0904337 17-11689 201 SKYLINE DR 2017-09-22 21:16:21.550 HARASSMENT
17-0904336 600 S HARKRIDER DR 2017-09-22 21:01:32.590 DISTURBANCE
17-0904335 17-11686 461 ELSINGER BLVD 2017-09-22 20:54:20.050 ACCIDENT - PRIVATE PROPERTY
17-0904334 535 ENTERPRISE AV 2017-09-22 20:53:04.410 TRESPASSING
17-0904333 17-11687 2505 E OAK ST 2017-09-22 20:50:22.153 ACCIDENT - PRIVATE PROPERTY
17-0904332 2665 DONAGHEY AV 2017-09-22 20:35:18.777 CHECKING VEHICLE
17-0904331 3000 PEBBLE BEACH DR 2017-09-22 20:24:26.063 DOMESTIC DISTURBANCE
17-0904328 2020 ARKANSAS AV 2017-09-22 19:48:57.383 DOMESTIC DISTURBANCE
17-0904327 801 SOUTH GERMAN LN 2017-09-22 19:47:38.747 CHECK ON THE WELFARE
17-0904325 1000 EAST GERMAN LN 2017-09-22 19:43:53.257 ACCIDENT - HIT AND RUN
17-0904324 1010 E OAK ST 2017-09-22 19:43:02.643 FRAUD
17-0904323 17-11684 1901 E OAK ST 2017-09-22 19:41:35.770 ACCIDENT - PROPERTY DAMAGE
17-0904322 1125 CLARENCE DR 2017-09-22 19:31:59.590 SUSPICIOUS ACTIVITY
17-0904321 1405 HAMILTON ST 2017-09-22 19:22:10.547 THEFT OF PROPERTY
17-0904320 17-11681 1905 WIGWAM CIR 2017-09-22 19:15:12.073 THEFT OF PROPERTY
17-0904319 200 S HARKRIDER DR 2017-09-22 18:53:28.003 DOMESTIC DISTURBANCE
17-0904318 120 S HARKRIDER DR 2017-09-22 18:53:23.087 CHECKING PERSON
17-0904316 17-11682 130 GRAND FALLS 2017-09-22 18:48:26.037 BURGLARY
17-0904315 17-11679 650 SKYLINE DR 2017-09-22 18:37:30.727 ACCIDENT - PROPERTY DAMAGE
17-0904313 705 4TH ST 2017-09-22 18:17:14.997 AGENCY ASSIST
17-0904312 545 E DAVE WARD DR 2017-09-22 17:59:50.303 ATTEMPT TO CONTACT
17-0904311 1000 GUM ST 2017-09-22 17:58:09.090 FIGHT
17-0904307 1330 CADRON GAP RD 2017-09-22 17:43:39.597 DOMESTIC DISTURBANCE
17-0904306 2413 JESSICA DR 2017-09-22 17:36:55.687 DOMESTIC DISTURBANCE
17-0904305 2235 E OAK ST 2017-09-22 17:36:41.003 STALLED VEHICLE
17-0904304 17-11677 2901 COLLEGE AV 2017-09-22 17:30:06.790 ACCIDENT - PROPERTY DAMAGE
17-0904303 17-11676 580 E DAVE WARD DR 2017-09-22 17:27:14.003 ACCIDENT - PRIVATE PROPERTY
17-0904302 17-11675 127 I40EB 2017-09-22 17:14:15.683 ABANDONED VEHICLE
17-0904299 17-11673 2125 DAVE WARD DR 2017-09-22 16:48:59.823 ACCIDENT - PROPERTY DAMAGE
17-0904298 17-11672 500 SOUTH GERMAN LN 2017-09-22 16:39:40.493 MISDEMEANOR WARRANT SERVICE
17-0904295 2023 DUNCAN ST 2017-09-22 16:16:30.390 CIVIL MATTER
17-0904293 165 FARRIS RD 2017-09-22 16:05:11.403 VEHICLE TOW
17-0904292 1645 HIGHPOINT DR 2017-09-22 16:01:55.617 ALARM
17-0904290 17-11670 600 SKYLINE DR 2017-09-22 15:57:20.193 ACCIDENT - PERSONAL INJURY
17-0904289 17-11669 1632 DONAGHEY AV 2017-09-22 15:54:16.480 ACCIDENT - PROPERTY DAMAGE
17-0904288 17-11671 1701 HAIRSTON AV 2017-09-22 15:52:32.297 BREAKING OR ENTERING
17-0904286 1400 MAYOR LN 2017-09-22 15:50:00.973 SUSPICIOUS PERSON
17-0904284 17-11668 801 S SALEM RD 2017-09-22 15:42:30.230 ACCIDENT - PROPERTY DAMAGE
17-0904283 504 4TH ST 2017-09-22 15:41:43.900 ATTEMPT TO CONTACT
17-0904282 801 SOUTH GERMAN LN 2017-09-22 15:38:11.033 ATTEMPT TO CONTACT
17-0904280 17-11667 1001 HARKRIDER ST 2017-09-22 15:20:40.930 ACCIDENT - PROPERTY DAMAGE
17-0904279 1 MEDICAL LN 2017-09-22 14:53:24.460 CHECK ON THE WELFARE
17-0904278 1105 PRAIRIE ST 2017-09-22 14:47:56.527 ATTEMPT TO CONTACT
17-0904277 17-11666 1895 E OAK ST 2017-09-22 14:47:19.847 ATTEMPT TO CONTACT
17-0904275 17-11663 517 POLK ST 2017-09-22 14:16:03.793 THEFT OF PROPERTY
17-0904273 17-11664 650 SIMON ST 2017-09-22 14:02:15.540 FRAUD
17-0904272 2017-09-22 13:53:31.510 FIRE-SQUAD CALLOUT
17-0904271 17-11661 545 SKYLINE DR 2017-09-22 13:51:58.743 ACCIDENT - PRIVATE PROPERTY
17-0904270 500 AMITY RD 2017-09-22 13:43:41.573 SUPPLEMENT REPORT CALL
17-0904269 17-11665 1830 HOGAN LN 2017-09-22 13:41:36.900 ATTEMPT TO CONTACT
17-0904268 17-11659 1095 SKYLINE DR 2017-09-22 13:38:47.230 ACCIDENT - PROPERTY DAMAGE
17-0904267 1002 E OAK ST 2017-09-22 13:36:03.180 FRAUD
17-0904266 17-11660 2505 E OAK ST 2017-09-22 13:33:36.597 ACCIDENT - PRIVATE PROPERTY
17-0904265 760 S HOGAN LN 2017-09-22 13:31:59.603 ATTEMPT TO CONTACT
17-0904264 700 SOUTH GERMAN LN 2017-09-22 13:31:51.710 CITIZEN ASSIST
17-0904263 1750 TUSCANY DR 2017-09-22 13:21:55.733 HARASSING COMMUNICATIONS
17-0904262 915 E OAK ST 2017-09-22 13:16:09.790 CIVIL MATTER
17-0904261 1620 MIDDLE RD 2017-09-22 13:14:53.933 CIVIL STAND BY
17-0904260 502 HARKRIDER ST 2017-09-22 12:56:19.197 TRAFFIC PROBLEM-CONTROL
17-0904259 17-11656 405 OAK ST 2017-09-22 12:55:13.497 FOUND PROPERTY
17-0904258 100 BROOKSIDE DR 2017-09-22 12:46:29.063 CIVIL MATTER
17-0904257 17-11662 1715 PECAN CREEK DR 2017-09-22 12:42:33.017 BREAKING OR ENTERING
17-0904255 17-11655 801 SOUTH GERMAN LN 2017-09-22 12:28:17.677 DISTURBANCE
17-0904254 101 HARKRIDER ST 2017-09-22 12:28:00.800 CHECK ON THE WELFARE
17-0904252 17-11658 3700 DAVE WARD DR 2017-09-22 12:23:37.060 CHECK ON THE WELFARE
17-0904249 530 S DONAGHEY AV 2017-09-22 12:14:38.073 CIVIL MATTER
17-0904248 17-11654 2510 PRINCE ST 2017-09-22 12:07:44.317 ACCIDENT - PRIVATE PROPERTY
17-0904247 2901 TYLER ST 2017-09-22 12:04:27.153 ATTEMPT TO CONTACT
17-0904246 1423 DAVIS ST 2017-09-22 11:59:49.810 HARASSMENT
17-0904244 799 S HOGAN LN 2017-09-22 11:57:58.750 CHECK ON THE WELFARE
17-0904243 2105 NATURE TRL 2017-09-22 11:56:49.017 DOMESTIC DISTURBANCE
17-0904241 17-11652 1405 S DONAGHEY AV 2017-09-22 11:34:44.647 BATTERY REPORT
17-0904240 17-11650 215 FARRIS RD 2017-09-22 11:31:51.247 PROPERTY DAMAGE
17-0904239 17-11651 250 S HOGAN LN 2017-09-22 11:29:27.250 ACCIDENT - PROPERTY DAMAGE
17-0904238 17-11653 1405 S DONAGHEY AV 2017-09-22 11:25:31.883 DISTURBANCE
17-0904231 1620 MIDDLE RD 2017-09-22 10:58:00.690 TERRORISTIC THREATENING
17-0904229 1707 WASHINGTON AV 2017-09-22 10:52:11.437 ATTEMPT TO CONTACT
17-0904227 17-11648 475 ROBINS ST 2017-09-22 10:49:43.583 THEFT OF PROPERTY
17-0904226 500 AMITY RD 2017-09-22 10:48:09.860 SUPPLEMENT REPORT CALL
17-0904220 723 PARKWAY ST 2017-09-22 10:36:20.350 FRAUD
17-0904218 702 E 6TH ST 2017-09-22 10:31:40.260 CHECK ON THE WELFARE
17-0904216 2770 MEADOWLAKE RD 2017-09-22 10:29:11.253 VEHICLE TOW
17-0904211 17-11646 550 E DAVE WARD DR 2017-09-22 10:19:36.013 ACCIDENT - PROPERTY DAMAGE
17-0904208 56 MEADOWBROOK DR 2017-09-22 10:11:26.393 SERVING SUBPOENA
17-0904205 17-11643 202 S DONAGHEY AV 2017-09-22 10:03:43.123 ACCIDENT - PROPERTY DAMAGE
17-0904198 1620 MIDDLE RD 2017-09-22 09:20:57.897 DISTURBANCE
17-0904193 1 HAWTHORNE DR 2017-09-22 09:03:05.063 SERVING SUBPOENA
17-0904190 17-11639 365 FARRIS RD 2017-09-22 08:49:50.537 ATTEMPT TO CONTACT
17-0904189 1105 PRAIRIE ST 2017-09-22 08:45:16.600 ATTEMPT TO CONTACT
17-0904187 17-11642 500 AMITY RD 2017-09-22 08:39:20.210 BURGLARY
17-0904185 335 S MITCHELL ST 2017-09-22 08:34:08.743 SUPPLEMENT REPORT CALL
17-0904175 1200 DAVE WARD DR 2017-09-22 07:56:55.437 CHECK ON THE WELFARE
17-0904173 17-11636 766 HARKRIDER ST 2017-09-22 07:25:37.417 ACCIDENT - PROPERTY DAMAGE
17-0904172 17-11635 501 HOGAN LN 2017-09-22 06:45:29.603 ACCIDENT - PROPERTY DAMAGE
17-0904171 4550 OLD MORRILTON HWY 2017-09-22 06:39:57.523 ALARM
17-0904169 335 S MITCHELL ST 2017-09-22 04:58:46.820 SUPPLEMENT REPORT CALL
17-0904168 1095 SKYLINE DR 2017-09-22 03:56:09.153 SUSPICIOUS ACTIVITY
17-0904167 1415 BERMUDA ST 2017-09-22 03:37:04.017 SUSPICIOUS ACTIVITY
17-0904165 1152 HUNTER ST 2017-09-22 03:26:08.163 CHECKING BUILDING
17-0904164 17-11634 335 S MITCHELL ST 2017-09-22 02:32:19.053 ROBBERY
17-0904161 3100 IRBY DR 2017-09-22 01:50:04.930 TRESPASSING
17-0904160 219 MILL ST 2017-09-22 01:46:16.367 LOUD NOISE-MUSIC
17-0904158 504 MONROE ST 2017-09-22 01:17:56.827 TRESPASSING
17-0904157 515 HARKRIDER ST 2017-09-22 01:15:54.617 ALARM
17-0904156 1101 OAK ST 2017-09-22 01:11:28.147 CHECKING PERSON
17-0904155 1260 OLD MORRILTON HWY 2017-09-22 01:06:50.330 CHECKING PERSON
17-0904151 2302 COLLEGE AV 2017-09-22 00:47:55.027 HARASSING COMMUNICATIONS
17-0904150 860 BROWNSTONE DR 2017-09-22 00:38:43.390 CHECK ON THE WELFARE
17-0904149 1035 SKYLINE DR 2017-09-22 00:29:30.007 CHECKING PERSON
17-0904148 17-11632 235 FARRIS RD 2017-09-22 00:25:35.660 THEFT OF PROPERTY
17-0904147 220 SKYLINE DR 2017-09-22 00:18:47.907 ALARM - BANK
17-0904146 1355 EXCHANGE AV 2017-09-22 00:14:42.633 ALARM
17-0904144 1155 SKYLINE DR 2017-09-22 00:10:17.997 CHECKING PERSON
17-0904143 1500 MUSEUM RD 2017-09-21 23:51:17.110 CHECKING VEHICLE
17-0904142 235 FARRIS RD 2017-09-21 23:48:29.993 SUPPLEMENT REPORT CALL
17-0904140 1940 AMELIA DR 2017-09-21 23:19:14.053 SUPPLEMENT REPORT CALL
17-0904139 2499 VICTORY LN 2017-09-21 23:11:43.530 CHECKING VEHICLE
17-0904138 12 SOUTH HAMPTON DR 2017-09-21 23:04:30.893 CHECKING VEHICLE
17-0904137 10 LOWER RIDGE RD 2017-09-21 23:02:02.440 SHOTS FIRED
17-0904135 17-11631 235 FARRIS RD 2017-09-21 22:36:27.480 FRAUD
17-0904134 10 LOWER RIDGE RD 2017-09-21 22:34:38.197 CHECKING BUILDING
17-0904133 27 GLENDALE DR 2017-09-21 22:18:09.230 SUSPICIOUS PERSON
17-0904131 17-11630 1940 AMELIA DR 2017-09-21 22:07:31.863 DOMESTIC DISTURBANCE
17-0904130 875 SKYLINE DR 2017-09-21 22:01:23.170 ATTEMPT TO CONTACT
17-0904129 3875 RUPERT DR 2017-09-21 21:55:17.697 ATTEMPT TO CONTACT
17-0904126 2280 SANDERS ST 2017-09-21 21:46:03.807 SUSPICIOUS VEHICLE
17-0904122 1202 SPENCER ST 2017-09-21 21:13:03.300 HARASSMENT
17-0904121 2050 SILVER SPRINGS CIR 2017-09-21 21:10:45.323 SUSPICIOUS ACTIVITY
17-0904118 2412 JESSICA DR 2017-09-21 21:08:20.463 UNKNOWN TROUBLE
17-0904114 100 INGRAM ST 2017-09-21 20:43:28.793 CHECKING PERSON
17-0904110 5200 JOHN W. ALLISON RD 2017-09-21 20:21:22.163 TRESPASSING
17-0904108 475 ROBINS ST 2017-09-21 20:11:53.003 SUSPICIOUS PERSON
17-0904107 2080 BROADVIEW AV 2017-09-21 20:07:12.840 SUSPICIOUS ACTIVITY
17-0904104 2080 BROADVIEW AV 2017-09-21 19:54:59.130 HARASSMENT
17-0904103 1399 CLAYTON ST 2017-09-21 19:53:00.170 CHECKING VEHICLE
17-0904099 2360 SANDERS ST 2017-09-21 18:48:57.740 LOG VEHICLE
17-0904097 601 SOUTH GERMAN LN 2017-09-21 18:30:17.723 CRIMINAL MISCHIEF
17-0904096 401 2ND ST 2017-09-21 18:26:43.800 RECOVERED VEHICLE
17-0904095 17-11628 1810 ANGELINE DR 2017-09-21 18:11:22.530 DOMESTIC DISTURBANCE
17-0904094 1300 COLLEGE AV 2017-09-21 17:49:43.580 STALLED VEHICLE
17-0904093 17-11627 1529 BRUCE ST 2017-09-21 17:49:07.597 THEFT OF VEHICLE
17-0904092 1155 SKYLINE DR 2017-09-21 17:44:13.590 HARASSMENT
17-0904088 2550 PRINCE ST 2017-09-21 16:58:46.023 CHECK ON THE WELFARE
17-0904087 500 SOUTH GERMAN LN 2017-09-21 16:58:17.577 ATTEMPT TO CONTACT
17-0904084 3100 IRBY DR 2017-09-21 16:26:37.947 SUSPICIOUS ACTIVITY
17-0904083 17-11625 2900 PRINCE ST 2017-09-21 16:25:34.480 ACCIDENT - PROPERTY DAMAGE
17-0904082 17-11626 1307 PRAIRIE ST 2017-09-21 16:09:32.427 FRAUD
17-0904081 17-11624 2905 PRINCE ST 2017-09-21 16:04:26.690 FRAUD
17-0904080 17-11623 132 EVE LN 2017-09-21 16:03:05.203 ACCIDENT - PEDESTRIAN
17-0904076 60 FAIRMONT DR 2017-09-21 15:31:44.313 LOUD NOISE-MUSIC
17-0904074 801 HOGAN LN 2017-09-21 15:22:51.417 SUSPICIOUS PERSON
17-0904073 2405 DAVE WARD DR 2017-09-21 15:20:24.317 THEFT OF SERVICES
17-0904070 17-11621 755 CHERUB DR 2017-09-21 15:10:04.453 ATTEMPT TO CONTACT
17-0904069 3099 SALEM RD 2017-09-21 15:03:10.467 CHECK ON THE WELFARE
17-0904067 2100 BROADVIEW AV 2017-09-21 14:54:53.920 REPOSSESSION
17-0904063 17-11620 2499 MUSEUM RD 2017-09-21 14:42:11.237 ACCIDENT - PROPERTY DAMAGE
17-0904062 3325 PEBBLE BEACH DR 2017-09-21 14:33:29.047 CHECK ON THE WELFARE
17-0904059 17-11618 1390 OLD MORRILTON HWY 2017-09-21 14:24:10.013 ACCIDENT - PRIVATE PROPERTY
17-0904057 2430 SANDERS ST 2017-09-21 14:08:45.703 ATTEMPT TO CONTACT
17-0904056 2865 YORK LN 2017-09-21 14:00:29.617 ALARM
17-0904055 36 THOUSAND OAKS CIR 2017-09-21 13:59:37.937 ALARM
17-0904054 17-11616 1750 VILLAGE COMMONS DR 2017-09-21 13:58:29.220 LOST-STOLEN LICENSE PLATE
17-0904053 17-11612 800 EXCHANGE AV 2017-09-21 13:41:43.990 ACCIDENT - PRIVATE PROPERTY
17-0904050 17-11609 1105 PRAIRIE ST 2017-09-21 13:20:15.710 ATTEMPT TO CONTACT
17-0904049 1250 S AMITY RD 2017-09-21 13:14:32.020 TRESPASSING
17-0904046 17-11610 400 SALEM RD 2017-09-21 13:10:28.723 ACCIDENT - PRIVATE PROPERTY
17-0904045 60 FAIRMONT DR 2017-09-21 13:01:46.140 LOUD NOISE-MUSIC
17-0904041 17-11607 501 2ND ST 2017-09-21 12:27:09.583 ACCIDENT - PERSONAL INJURY
17-0904040 823 OAK ST 2017-09-21 12:23:05.083 RECKLESS DRIVER
17-0904038 740 MILAM DR 2017-09-21 12:19:03.713 ATTEMPT TO CONTACT
17-0904036 17-11608 1155 SKYLINE DR 2017-09-21 12:11:43.413 SHOPLIFTING
17-0904035 1665 GARDENIA 2017-09-21 12:08:52.257 PROPERTY DAMAGE
17-0904034 17-11606 1002 HOGAN LN 2017-09-21 12:07:50.173 ACCIDENT - PERSONAL INJURY
17-0904031 1264 BRUCE ST 2017-09-21 11:57:19.993 TRAFFIC LIGHT PROBLEM
17-0904029 908 E OAK ST 2017-09-21 11:49:26.937 STALLED VEHICLE
17-0904023 1405 S DONAGHEY AV 2017-09-21 11:19:24.680 CIVIL MATTER
17-0904022 1500 E DAVE WARD DR 2017-09-21 11:17:42.890 ALARM
17-0904021 17-11603 1175 MORNINGSIDE DR 2017-09-21 11:16:43.050 ABUSE
17-0904020 1175 MORNINGSIDE DR 2017-09-21 11:07:06.830 ATTEMPT TO CONTACT
17-0904018 960 ENDERLIN DR 2017-09-21 11:01:22.303 ALARM
17-0904017 1501 HARKRIDER ST 2017-09-21 11:01:20.180 ATTEMPT TO CONTACT
17-0904016 3715 PRINCE ST 2017-09-21 10:57:49.847 CIVIL MATTER
17-0904008 1705 BRYANT CIR 2017-09-21 09:56:54.847 ATTEMPT TO CONTACT
17-0904003 1701 TYLER ST 2017-09-21 09:29:46.337 TRAFFIC PROBLEM-CONTROL
17-0904001 100 BROOKSIDE DR 2017-09-21 09:22:02.497 SERVING SUBPOENA
17-0904000 475 ROBINS ST 2017-09-21 09:20:47.667 ATTEMPT TO CONTACT
17-0903999 56 MEADOWBROOK DR 2017-09-21 09:20:02.950 SERVING SUBPOENA
17-0903998 56 MEADOWBROOK DR 2017-09-21 09:19:37.600 SERVING SUBPOENA
17-0903997 10 IRONWOOD DR 2017-09-21 09:13:13.347 ALARM
17-0903996 1520 ANGELINE DR 2017-09-21 09:13:04.713 SERVING SUBPOENA
17-0903994 2211 LOOKOUT AV 2017-09-21 09:08:58.687 SERVING SUBPOENA
17-0903993 323 S ASH ST 2017-09-21 09:06:57.910 SERVING SUBPOENA
17-0903992 17-11600 2320 APPLE BLOSSOM 2017-09-21 09:04:33.550 BREAKING OR ENTERING
17-0903988 17-11599 850 OAK ST 2017-09-21 08:59:01.577 FORGERY
17-0903986 612 CENTER ST 2017-09-21 08:58:12.680 SERVING SUBPOENA
17-0903984 2017-09-21 08:53:33.920 SERVING SUBPOENA
17-0903983 17-11598 475 ROBINS ST 2017-09-21 08:51:08.687 CRIMINAL MISCHIEF
17-0903982 1 HAWTHORNE DR 2017-09-21 08:47:27.473 SERVING SUBPOENA
17-0903978 1900 HOGAN LN 2017-09-21 08:36:37.067 SERVING SUBPOENA
17-0903976 2325 KRYSTAL KREEK DR 2017-09-21 08:25:53.927 CHECKING VEHICLE
17-0903968 2500 OLD MORRILTON HWY 2017-09-21 07:33:11.897 CHECKING VEHICLE
17-0903964 818 4TH ST 2017-09-21 07:18:03.720 SUSPICIOUS PERSON
17-0903962 17-11597 124 6TH ST 2017-09-21 07:07:45.170 THEFT OF VEHICLE
17-0903961 1920 HALLOUS ST 2017-09-21 07:04:46.017 ALARM
17-0903956 475 ROBINS ST 2017-09-21 06:35:01.607 SUPPLEMENT REPORT CALL
17-0903955 2005 DAVE WARD DR 2017-09-21 06:11:41.510 AGENCY ASSIST
17-0903954 900 S AMITY RD 2017-09-21 05:52:40.810 STALLED VEHICLE
17-0903953 1101 S SALEM RD 2017-09-21 05:30:40.617 CHECKING VEHICLE
17-0903952 17-11596 777 S EAST GERMAN LN 2017-09-21 05:12:41.813 CHECK ON THE WELFARE
17-0903950 2100 HAIRSTON AV 2017-09-21 04:52:12.023 CHECKING PERSON
17-0903949 2105 DAVE WARD DR 2017-09-21 04:32:17.157 ALARM - BANK
17-0903948 475 ROBINS ST 2017-09-21 03:24:09.447 CRIMINAL MISCHIEF
17-0903947 2360 SANDERS ST 2017-09-21 03:13:42.540 CHECKING VEHICLE
17-0903944 515 HARKRIDER ST 2017-09-21 02:18:49.053 ALARM
17-0903943 1065 CLAYTON ST 2017-09-21 02:10:00.000 CHECKING BUILDING
17-0903940 1065 CLAYTON ST 2017-09-21 01:40:56.343 ALARM
17-0903939 705 HARKRIDER ST 2017-09-21 01:40:44.210 SUSPICIOUS PERSON
17-0903938 2200 WASHINGTON AV 2017-09-21 01:40:44.147 CHECK ON THE WELFARE
17-0903936 20 KINLEY DR 2017-09-21 01:08:26.457 ATTEMPT TO CONTACT
17-0903932 60 FAIRMONT DR 2017-09-21 00:31:26.843 LOUD NOISE-MUSIC
17-0903931 17-11595 1704 CALDWELL ST 2017-09-21 00:12:29.713 BURGLARY
17-0903929 1010 MAIN ST 2017-09-21 00:08:19.543 INTOXICATED PERSON
17-0903928 475 ROBINS ST 2017-09-21 00:03:24.507 CRIMINAL MISCHIEF
17-0903926 2310 ROBINSON AV 2017-09-20 23:32:38.990 CHECKING PERSON
17-0903925 818 4TH ST 2017-09-20 23:27:33.130 SUSPICIOUS PERSON
17-0903920 425 2ND AV 2017-09-20 22:48:32.463 UNKNOWN TROUBLE
17-0903919 870 ENTERPRISE AV 2017-09-20 22:45:45.380 CHECKING VEHICLE
17-0903911 50 LOWER RIDGE RD 2017-09-20 22:05:08.070 RECKLESS DRIVER
17-0903908 303 ASH ST 2017-09-20 21:58:43.410 SUPPLEMENT REPORT CALL
17-0903907 1600 E OAK ST 2017-09-20 21:58:00.207 CHECKING PERSON
17-0903900 350 SKYLINE DR 2017-09-20 21:23:04.067 THEFT OF PROPERTY
17-0903897 4101 PRINCE ST 2017-09-20 20:56:12.250 CHECKING VEHICLE
17-0903895 5310 PLANTATION CV 2017-09-20 20:54:54.360 CIVIL MATTER
17-0903892 2505 PRINCE ST 2017-09-20 20:43:40.323 STALLED VEHICLE
17-0903887 1418 PRINCE ST 2017-09-20 20:29:03.590 DOMESTIC DISTURBANCE
17-0903886 1505 ROBINSON AV 2017-09-20 20:23:25.550 UNKNOWN TROUBLE
17-0903884 1264 BRUCE ST 2017-09-20 20:13:32.160 STALLED VEHICLE
17-0903883 500 LOCUST AV 2017-09-20 20:11:05.717 SUPPLEMENT REPORT CALL
17-0903882 1155 SKYLINE DR 2017-09-20 20:08:35.563 SUPPLEMENT REPORT CALL
17-0903880 450 ROBINS ST 2017-09-20 20:05:25.960 TRESPASSING
17-0903877 17-11593 303 ASH ST 2017-09-20 20:02:17.883 THEFT OF PROPERTY
17-0903870 1940 JAGUAR DR 2017-09-20 19:19:09.237 SUSPICIOUS VEHICLE
17-0903868 2511 W SIMMS ST 2017-09-20 19:11:34.770 HARASSMENT
17-0903867 60 FAIRMONT DR 2017-09-20 19:08:05.953 LOUD NOISE-MUSIC
17-0903866 1501 HOGAN LN 2017-09-20 19:05:57.327 RECKLESS DRIVER
17-0903865 2900 MEADOWLAKE RD 2017-09-20 18:38:12.747 STALLED VEHICLE
17-0903864 1155 SKYLINE DR 2017-09-20 18:37:22.990 SUPPLEMENT REPORT CALL
17-0903861 17-11592 2505 E OAK ST 2017-09-20 18:31:53.680 ACCIDENT - PROPERTY DAMAGE
17-0903860 650 S MITCHELL ST 2017-09-20 18:31:35.707 ATTEMPT TO CONTACT
17-0903859 17-11591 1201 OAK ST 2017-09-20 18:29:19.370 ACCIDENT - PROPERTY DAMAGE
17-0903857 17-11590 2500 DAVE WARD DR 2017-09-20 18:13:19.227 ACCIDENT - PROPERTY DAMAGE
17-0903854 3900 DAVE WARD DR 2017-09-20 18:03:58.127 CITIZEN ASSIST
17-0903853 207 WILLOW ST 2017-09-20 17:54:48.847 DISTURBANCE
17-0903852 2255 BLANEY HILL RD 2017-09-20 17:51:01.233 SUSPICIOUS VEHICLE
17-0903850 1506 DAVIS ST 2017-09-20 17:46:05.523 SERVING SUBPOENA
17-0903849 1157 FORREST LN 2017-09-20 17:41:32.620 ATTEMPT TO CONTACT
17-0903848 3950 TAILHOOK DR 2017-09-20 17:30:19.183 ATTEMPT TO CONTACT
17-0903847 17-11589 100 SOUTH GERMAN LN 2017-09-20 17:26:45.810 CRIMINAL MISCHIEF
17-0903846 2300 PRINCE ST 2017-09-20 17:24:06.503 RECOVERED PROPERTY
17-0903845 520 S DAVIS ST 2017-09-20 17:15:14.227 DISTURBANCE
17-0903844 805 NOTTINGHAM DR 2017-09-20 17:13:16.697 CHECK ON THE WELFARE
17-0903843 5025 LONGWALL DR 2017-09-20 17:09:35.873 ATTEMPT TO CONTACT
17-0903842 116 DONAGHEY AV 2017-09-20 17:02:47.753 CHECK ON THE WELFARE
17-0903841 425 E DAVE WARD DR 2017-09-20 17:01:28.587 ATTEMPT TO CONTACT
17-0903840 1705 MILESTONE DR 2017-09-20 16:52:43.520 CIVIL STAND BY
17-0903838 17-11586 2100 DAVE WARD DR 2017-09-20 16:42:53.600 ACCIDENT - PERSONAL INJURY
17-0903835 17-11584 3950 TAILHOOK DR 2017-09-20 16:25:05.673 AGENCY ASSIST
17-0903834 285 ASH ST 2017-09-20 16:21:42.877 REPOSSESSION
17-0903833 17-11582 550 E DAVE WARD DR 2017-09-20 16:19:41.687 ACCIDENT - PROPERTY DAMAGE
17-0903832 2023 DUNCAN ST 2017-09-20 16:18:01.773 ABANDONED VEHICLE
17-0903830 17-11585 1175 MORNINGSIDE DR 2017-09-20 16:15:29.180 THEFT OF PROPERTY
17-0903829 2050 DAVE WARD DR 2017-09-20 16:13:53.463 CHECK ON THE WELFARE
17-0903826 17-11575 301 DONAGHEY AV 2017-09-20 15:56:09.503 ACCIDENT - PROPERTY DAMAGE
17-0903825 1105 SKYLINE DR 2017-09-20 15:53:15.373 BATTERY REPORT
17-0903823 6 FERNWOOD DR 2017-09-20 15:49:33.800 CIVIL MATTER
17-0903820 517 4TH ST 2017-09-20 15:42:45.300 BURGLARY
17-0903819 17-11572 550 E DAVE WARD DR 2017-09-20 15:40:00.027 ACCIDENT - PROPERTY DAMAGE
17-0903818 1600 COUNTRY CLUB RD 2017-09-20 15:38:49.620 STALLED VEHICLE
17-0903817 17-11580 504 E OAK ST 2017-09-20 15:37:07.143 DOMESTIC DISTURBANCE
17-0903816 1001 SALEM RD 2017-09-20 15:35:08.790 CHECK ON THE WELFARE
17-0903812 17-11568 1662 DAVE WARD DR 2017-09-20 15:22:15.060 ACCIDENT - PROPERTY DAMAGE
17-0903809 1655 DAVE WARD DR 2017-09-20 15:14:58.090 STALLED VEHICLE
17-0903808 501 ELSINGER BLVD 2017-09-20 15:08:27.910 LOUD NOISE-MUSIC
17-0903806 17-11566 1900 E DAVE WARD DR 2017-09-20 15:00:58.167 ACCIDENT - PROPERTY DAMAGE
17-0903799 1122 VAN RONKLE ST 2017-09-20 14:31:17.790 FRAUD
17-0903795 1210 TRENTON DR 2017-09-20 14:23:04.880 AGENCY ASSIST
17-0903794 615 FAULKNER ST 2017-09-20 14:22:49.287 BURGLARY
17-0903792 475 ROBINS ST 2017-09-20 14:22:00.347 ATTEMPT TO CONTACT
17-0903790 17-11557 105 DAVIS ST 2017-09-20 14:13:36.693 ACCIDENT - PRIVATE PROPERTY
17-0903786 1155 SKYLINE DR 2017-09-20 14:05:26.850 SUPPLEMENT REPORT CALL
17-0903784 3950 TAILHOOK DR 2017-09-20 13:54:30.830 AGENCY ASSIST
17-0903780 655 ELSINGER BLVD 2017-09-20 13:34:07.033 CHECKING VEHICLE
17-0903777 1200 DAVE WARD DR 2017-09-20 13:08:23.023 RECKLESS DRIVER
17-0903776 17-11546 1155 SKYLINE DR 2017-09-20 13:05:50.193 THEFT OF PROPERTY
17-0903775 1310 JOYNER DR 2017-09-20 13:03:38.760 REPOSSESSION
17-0903774 17-11547 875 GRANITE LN 2017-09-20 12:59:36.823 DEATH CALL
17-0903766 2211 LOOKOUT AV 2017-09-20 12:24:59.487 SERVING SUBPOENA
17-0903765 17-11543 2515 W MARTIN ST 2017-09-20 12:20:25.910 TERRORISTIC THREATENING
17-0903763 1157 FORREST LN 2017-09-20 12:13:37.443 SERVING SUBPOENA
17-0903762 1014 HARKRIDER ST 2017-09-20 12:03:53.397 ATTEMPT TO CONTACT
17-0903761 612 CENTER ST 2017-09-20 11:57:30.910 SERVING SUBPOENA
17-0903755 2715 PRINCE ST 2017-09-20 11:35:46.683 VEHICLE TOW
17-0903754 1506 DAVIS ST 2017-09-20 11:35:45.587 SERVING SUBPOENA
17-0903752 1155 SKYLINE DR 2017-09-20 11:33:59.327 ATTEMPT TO CONTACT
17-0903750 475 ROBINS ST 2017-09-20 11:29:47.290 SERVING SUBPOENA
17-0903747 2017-09-20 11:24:02.260 ATTEMPT TO CONTACT
17-0903746 31 ROSANNE DR 2017-09-20 11:21:51.793 SERVING SUBPOENA
17-0903745 4150 TYLER ST 2017-09-20 11:19:51.110 ATTEMPT TO CONTACT
17-0903743 1 HAWTHORNE DR 2017-09-20 11:14:15.843 SERVING SUBPOENA
17-0903741 29 ROSANNE DR 2017-09-20 11:09:44.710 SERVING SUBPOENA
17-0903739 1900 HOGAN LN 2017-09-20 11:06:05.813 SERVING SUBPOENA
17-0903738 510 3RD AV 2017-09-20 11:02:11.973 ALARM
17-0903736 17-11537 1405 ROBINS ST 2017-09-20 10:53:52.483 THEFT OF PROPERTY
17-0903734 1105 PRAIRIE ST 2017-09-20 10:52:55.550 SERVING SUBPOENA
17-0903732 17-11538 1238 MCNUTT RD 2017-09-20 10:49:08.543 ACCIDENT - PROPERTY DAMAGE
17-0903730 825 WILLIAM J CLARK DR 2017-09-20 10:39:44.420 ALARM
17-0903728 1105 PRAIRIE ST 2017-09-20 10:29:16.480 ATTEMPT TO CONTACT
17-0903725 2000 KEATHLEY DR 2017-09-20 10:25:42.120 SERVING SUBPOENA
17-0903724 1955 KEATHLEY DR 2017-09-20 10:20:29.577 SERVING SUBPOENA
17-0903723 17-11535 510 SOUTH GERMAN LN 2017-09-20 10:14:08.133 TERRORISTIC THREATENING
17-0903722 1520 ANGELINE DR 2017-09-20 10:09:05.237 SERVING SUBPOENA
17-0903717 100 BROOKSIDE DR 2017-09-20 09:50:39.843 SERVING SUBPOENA
17-0903716 17-11536 254 OAK ST 2017-09-20 09:49:36.693 FORGERY
17-0903714 608 ROBINS ST 2017-09-20 09:42:26.483 AGENCY ASSIST
17-0903713 17-11534 1001 HARKRIDER ST 2017-09-20 09:41:53.740 ACCIDENT - PROPERTY DAMAGE
17-0903710 1601 DAVIS ST 2017-09-20 09:34:43.253 SERVING SUBPOENA
17-0903709 2802 COLLEGE AV 2017-09-20 09:32:02.280 SUSPICIOUS PERSON
17-0903708 17-11532 906 PINE ST 2017-09-20 09:31:27.187 THEFT OF PROPERTY
17-0903706 56 MEADOWBROOK DR 2017-09-20 09:20:02.073 SERVING SUBPOENA
17-0903704 100 BROOKSIDE DR 2017-09-20 09:17:21.133 CIVIL STAND BY
17-0903702 2130 BLACKBERRY LN 2017-09-20 09:12:09.687 CIVIL MATTER
17-0903700 1125 GEORGETOWN DR 2017-09-20 09:05:27.347 SERVING SUBPOENA
17-0903699 17-11533 1115 PARKWAY ST 2017-09-20 09:03:13.113 LOST CHILD-FOUND CHILD
17-0903694 1052 HARRISON ST 2017-09-20 08:58:15.977 CIVIL MATTER
17-0903693 475 ROBINS ST 2017-09-20 08:55:12.760 TRESPASSING
17-0903692 1601 S DONAGHEY AV 2017-09-20 08:53:48.757 ATTEMPT TO CONTACT
17-0903688 475 ROBINS ST 2017-09-20 08:40:37.087 DISTURBANCE
17-0903687 405 ANGUS ST 2017-09-20 08:34:50.067 ATTEMPT TO CONTACT
17-0903685 17-11530 2505 E OAK ST 2017-09-20 08:32:52.217 CIVIL MATTER
17-0903680 500 SOUTH GERMAN LN 2017-09-20 08:22:20.903 ATTEMPT TO CONTACT
17-0903679 801 S SALEM RD 2017-09-20 08:16:57.107 SUPPLEMENT REPORT CALL
17-0903678 1940 AMELIA DR 2017-09-20 08:04:42.170 CHECK ON THE WELFARE
17-0903675 17-11529 4101 PRINCE ST 2017-09-20 07:59:09.500 ACCIDENT - PROPERTY DAMAGE
17-0903673 2799 SALEM RD 2017-09-20 07:53:03.200 TRAFFIC PROBLEM-CONTROL
17-0903670 2125 POPLAR ST 2017-09-20 07:39:26.063 ATTEMPT TO CONTACT
17-0903669 500 SOUTH GERMAN LN 2017-09-20 07:38:25.510 MISDEMEANOR WARRANT SERVICE
17-0903667 17-11528 724 HOGAN LN 2017-09-20 07:19:33.300 FORGERY
17-0903664 475 ROBINS ST 2017-09-20 07:09:33.597 TRESPASSING
17-0903663 17-11527 2217 STOUT ST 2017-09-20 06:28:13.437 DOMESTIC DISTURBANCE
17-0903662 100 BROOKSIDE DR 2017-09-20 06:15:44.803 TRESPASSING
17-0903661 2900 DAVE WARD DR 2017-09-20 06:12:16.573 ACCIDENT - PROPERTY DAMAGE
17-0903660 17-11525 801 S SALEM RD 2017-09-20 06:12:12.603 ACCIDENT - PERSONAL INJURY
17-0903659 17-11526 500 SOUTH GERMAN LN 2017-09-20 06:09:53.390 MISDEMEANOR WARRANT SERVICE
17-0903657 2840 DAVE WARD DR 2017-09-20 03:28:35.963 BURGLARY
17-0903656 1602 ROBINS ST 2017-09-20 03:21:47.743 CHECKING PERSON
17-0903655 2302 COLLEGE AV 2017-09-20 03:14:02.473 BATTERY REPORT
17-0903654 604 CLARA DR 2017-09-20 02:53:31.577 CHECK ON THE WELFARE
17-0903653 515 HARKRIDER ST 2017-09-20 02:35:41.603 ALARM
17-0903652 875 SKYLINE DR 2017-09-20 02:12:35.250 CHECKING PERSON
17-0903651 375 E OAK ST 2017-09-20 02:11:27.840 SUSPICIOUS ACTIVITY
17-0903650 3000 DONNELL RIDGE RD 2017-09-20 01:35:56.130 CHECKING PERSON
17-0903649 17-11520 1105 SKYLINE DR 2017-09-20 01:28:56.847 CHECKING VEHICLE
17-0903648 4440 TREE HOUSE DR 2017-09-20 01:13:09.260 SUSPICIOUS ACTIVITY
17-0903647 2885 PRINCE ST 2017-09-20 01:11:01.690 ALARM - BANK
17-0903646 17-11522 1155 SKYLINE DR 2017-09-20 01:08:37.773 BREAKING OR ENTERING
17-0903645 308 FARRIS RD 2017-09-20 01:07:01.430 CHECKING PERSON
17-0903644 17-11521 308 FARRIS RD 2017-09-20 01:01:14.303 DOMESTIC DISTURBANCE
17-0903643 17-11518 475 ROBINS ST 2017-09-20 01:00:41.420 BATTERY REPORT
17-0903642 17-11519 1105 SKYLINE DR 2017-09-20 00:56:20.717 CHECKING PERSON
17-0903640 17-11517 1105 SKYLINE DR 2017-09-20 00:47:55.853 DOMESTIC DISTURBANCE
17-0903639 20 KINLEY DR 2017-09-20 00:36:55.410 CHECKING VEHICLE
17-0903637 3700 DAVE WARD DR 2017-09-19 23:55:04.453 TRAFFIC LIGHT PROBLEM
17-0903636 17-11515 475 ROBINS ST 2017-09-19 23:50:22.340 DISTURBANCE
17-0903635 1073 FRONT ST 2017-09-19 23:47:42.340 SUSPICIOUS PERSON
17-0903632 1905 OLD MORRILTON HWY 2017-09-19 23:11:54.817 DOMESTIC DISTURBANCE
17-0903629 17-11514 220 E OAK ST 2017-09-19 23:03:24.720 FORGERY
17-0903625 1405 S DONAGHEY AV 2017-09-19 22:36:38.313 CHECKING PERSON
17-0903624 17-11511 580 E DAVE WARD DR 2017-09-19 22:23:46.163 THEFT OF PROPERTY
17-0903622 875 SKYLINE DR 2017-09-19 22:08:00.157 CHECK ON THE WELFARE
17-0903621 1290 S AMITY RD 2017-09-19 21:58:11.643 LOITERING
17-0903620 525 SKYLINE DR 2017-09-19 21:51:33.853 CHECK ON THE WELFARE
17-0903619 17-11512 1560 NEW OXFORD RD 2017-09-19 21:46:03.403 SHOOTING
17-0903616 799 S EAST GERMAN LN 2017-09-19 21:34:26.417 TRAFFIC PROBLEM-CONTROL
17-0903615 1417 BRUCE ST 2017-09-19 21:24:36.200 PROWLER
17-0903614 3040 DONNELL RIDGE RD 2017-09-19 21:21:20.497 ATTEMPT TO CONTACT
17-0903612 1600 CALDWELL ST 2017-09-19 21:17:14.980 SUPPLEMENT REPORT CALL
17-0903611 559 HARKRIDER ST 2017-09-19 21:06:32.187 TRESPASSING
17-0903609 17-11509 1745 RACHEL DR 2017-09-19 20:58:58.027 DOMESTIC DISTURBANCE
17-0903606 17-11510 1600 DUNCAN ST 2017-09-19 20:29:50.853 CHECKING PERSON
17-0903605 1016 MARKHAM ST 2017-09-19 20:23:22.907 CHECKING PERSON
17-0903604 475 ROBINS ST 2017-09-19 20:15:15.513 SUSPICIOUS VEHICLE
17-0903603 2101 TYLER ST 2017-09-19 20:13:58.413 RECKLESS DRIVER
17-0903600 17-11507 1600 CALDWELL ST 2017-09-19 20:06:53.227 THEFT OF VEHICLE
17-0903599 305 BRUCE ST 2017-09-19 20:04:21.720 CHECKING PERSON
17-0903598 719 HARKRIDER ST 2017-09-19 20:03:56.433 TRAFFIC PROBLEM-CONTROL
17-0903595 1325 OLD MORRILTON HWY 2017-09-19 19:44:46.813 CHECKING PERSON
17-0903594 475 ROBINS ST 2017-09-19 19:44:42.433 SUSPICIOUS PERSON
17-0903591 17-11508 3900 DAVE WARD DR 2017-09-19 19:10:51.160 SUSPICIOUS PERSON
17-0903589 801 HOGAN LN 2017-09-19 18:59:47.710 SUSPICIOUS ACTIVITY
17-0903588 2901 COLLEGE AV 2017-09-19 18:55:38.940 RECKLESS DRIVER
17-0903585 17-11505 960 MATTISON RD 2017-09-19 18:26:13.653 ACCIDENT - PEDESTRIAN
17-0903584 17-11504 655 ELSINGER BLVD 2017-09-19 18:12:38.143 SHOPLIFTING
17-0903583 1025 S DONAGHEY AV 2017-09-19 18:11:19.210 AGENCY ASSIST
17-0903582 2217 STOUT ST 2017-09-19 18:10:16.207 ATTEMPT TO CONTACT
17-0903580 1111 MAIN ST 2017-09-19 17:52:59.023 TRAFFIC PROBLEM-CONTROL
17-0903579 441 HELEN ST 2017-09-19 17:44:47.197 DOMESTIC DISTURBANCE
17-0903577 475 ROBINS ST 2017-09-19 17:25:53.730 ATTEMPT TO CONTACT
17-0903575 17-11502 705 MUSEUM RD 2017-09-19 17:19:24.950 ACCIDENT - PERSONAL INJURY
17-0903574 1601 ROBINS ST 2017-09-19 17:13:21.110 CHECKING VEHICLE
17-0903573 17-11501 2500 COLLEGE AV 2017-09-19 17:00:45.183 ACCIDENT - PROPERTY DAMAGE
17-0903571 17-11500 3501 COLLEGE AV 2017-09-19 16:51:41.147 THEFT OF PROPERTY
17-0903567 1553 WASHINGTON AV 2017-09-19 16:22:05.030 THEFT OF PROPERTY
17-0903566 1301 COUNTRY CLUB RD 2017-09-19 16:19:43.053 CIVIL STAND BY
17-0903565 1105 PRAIRIE ST 2017-09-19 16:17:43.470 ATTEMPT TO CONTACT
17-0903563 1620 MIDDLE RD 2017-09-19 15:55:40.940 CHECK ON THE WELFARE
17-0903562 2505 E OAK ST 2017-09-19 15:53:19.397 TRAFFIC PROBLEM-CONTROL
17-0903561 475 ROBINS ST 2017-09-19 15:43:42.047 SUPPLEMENT REPORT CALL
17-0903560 17-11499 500 WATKINS ST 2017-09-19 15:41:31.493 ACCIDENT - PROPERTY DAMAGE
17-0903559 322 MILDRED ST 2017-09-19 15:33:15.413 ATTEMPT TO CONTACT
17-0903557 17-11498 1153 DONAGHEY AV 2017-09-19 15:27:51.053 ACCIDENT - PROPERTY DAMAGE
17-0903555 17-11497 2510 PRINCE ST 2017-09-19 15:25:22.727 ACCIDENT - PROPERTY DAMAGE
17-0903554 2112 KEATHLEY DR 2017-09-19 15:22:29.497 ATTEMPT TO CONTACT
17-0903553 17-11496 1102 OLD MORRILTON HWY 2017-09-19 15:17:59.897 ACCIDENT - PROPERTY DAMAGE
17-0903552 1370 STURGIS RD 2017-09-19 15:05:05.837 ATTEMPT TO CONTACT
17-0903548 1100 S AMITY RD 2017-09-19 14:38:36.180 CHECK ON THE WELFARE
17-0903545 2510 PRINCE ST 2017-09-19 14:28:44.147 RECKLESS DRIVER
17-0903542 806 FAULKNER ST 2017-09-19 14:16:56.543 SUPPLEMENT REPORT CALL
17-0903540 17-11492 2750 DAVE WARD DR 2017-09-19 14:07:16.383 BURGLARY
17-0903534 350 S DONAGHEY AV 2017-09-19 13:42:02.283 ACCIDENT - PERSONAL INJURY
17-0903533 1260 S AMITY RD 2017-09-19 13:38:49.220 BATTERY REPORT
17-0903532 475 ROBINS ST 2017-09-19 13:35:27.867 TRESPASSING
17-0903531 17-11482 2699 DONAGHEY AV 2017-09-19 13:31:06.090 ACCIDENT - PERSONAL INJURY
17-0903530 17-11483 17 NORTHWOOD DR 2017-09-19 13:27:29.703 BATTERY REPORT
17-0903529 1150 S AMITY RD 2017-09-19 13:25:21.223 ATTEMPT TO CONTACT
17-0903528 17-11480 1001 MUSEUM RD 2017-09-19 13:22:14.263 ACCIDENT - HIT AND RUN
17-0903521 2050 DAVE WARD DR 2017-09-19 12:53:03.147 SUPPLEMENT REPORT CALL
17-0903520 17-11479 1003 MUSEUM RD 2017-09-19 12:52:16.027 THEFT OF PROPERTY
17-0903518 17-11469 1701 STURGIS RD 2017-09-19 12:50:50.960 BATTERY REPORT
17-0903517 17-11472 806 FAULKNER ST 2017-09-19 12:47:20.333 THEFT OF PROPERTY
17-0903516 1125 S HARKRIDER DR 2017-09-19 12:47:18.263 CIVIL MATTER
17-0903509 17-11461 1553 WASHINGTON AV 2017-09-19 12:14:38.593 CRIMINAL MISCHIEF
17-0903506 17-11459 2905 PRINCE ST 2017-09-19 11:56:55.883 FRAUD
17-0903504 17-11456 1155 SKYLINE DR 2017-09-19 11:54:19.857 ACCIDENT - PRIVATE PROPERTY
17-0903503 17-11457 2050 DAVE WARD DR 2017-09-19 11:52:01.223 FIGHT
17-0903500 1175 MORNINGSIDE DR 2017-09-19 11:39:30.333 ABUSE
17-0903497 17-11453 1352 WATKINS ST 2017-09-19 11:25:37.857 NO CONTACT ORDER VIOLATION
17-0903495 17-11450 1008 E OAK ST 2017-09-19 11:22:46.800 FRAUD
17-0903492 7 CAMBRIDGE DR 2017-09-19 11:18:46.407 CIVIL MATTER
17-0903491 1105 PRAIRIE ST 2017-09-19 11:18:19.490 ATTEMPT TO CONTACT
17-0903484 17-11444 1709 WASHINGTON AV 2017-09-19 10:57:53.950 BATTERY REPORT
17-0903482 17-11446 513 3RD AV 2017-09-19 10:56:01.347 ATTEMPT TO CONTACT
17-0903474 17-11439 515 HARKRIDER ST 2017-09-19 10:27:23.883 ACCIDENT - PRIVATE PROPERTY
17-0903473 2205 ROSEMARY DR 2017-09-19 10:24:11.107 SUPPLEMENT REPORT CALL
17-0903472 1908 DAVE WARD DR 2017-09-19 10:12:58.540 NO CONTACT ORDER VIOLATION
17-0903462 719 FRONT ST 2017-09-19 09:01:18.200 CIVIL MATTER
17-0903461 127 I40EB 2017-09-19 08:53:34.357 STALLED VEHICLE
17-0903460 1405 S DONAGHEY AV 2017-09-19 08:51:53.643 TRESPASSING
17-0903459 1405 S DONAGHEY AV 2017-09-19 08:50:59.460 TRESPASSING
17-0903458 228 LOCUST AV 2017-09-19 08:50:30.803 ATTEMPT TO CONTACT
17-0903457 1 COMMERCE RD 2017-09-19 08:47:32.197 TRAFFIC PROBLEM-CONTROL
17-0903456 701 ROBINS ST 2017-09-19 08:37:29.323 TRAFFIC PROBLEM-CONTROL
17-0903455 1915 ROBINS ST 2017-09-19 08:33:08.637 SUSPICIOUS PERSON
17-0903454 17-11436 899 LOCUST AV 2017-09-19 08:27:48.923 ACCIDENT - PROPERTY DAMAGE
17-0903453 1630 DOE TRL 2017-09-19 08:27:24.240 ALARM
17-0903452 100 BROOKSIDE DR 2017-09-19 08:23:38.233 CIVIL MATTER
17-0903445 17-11435 2739 DAVE WARD DR 2017-09-19 07:57:42.700 ACCIDENT - PROPERTY DAMAGE
17-0903444 475 ROBINS ST 2017-09-19 07:48:24.963 CIVIL STAND BY
17-0903443 17-11432 1600 WASHINGTON AV 2017-09-19 07:36:35.883 ACCIDENT - PROPERTY DAMAGE
17-0903441 615 3RD AV 2017-09-19 07:30:42.473 ATTEMPT TO CONTACT
17-0903440 17-11431 475 ROBINS ST 2017-09-19 07:22:02.870 BURGLARY
17-0903438 1650 SOUTH GERMAN LN 2017-09-19 06:34:09.237 CHECK ON THE WELFARE
17-0903434 2500 DAVE WARD DR 2017-09-19 04:48:00.880 CHECKING PERSON
17-0903432 475 ROBINS ST 2017-09-19 04:35:31.210 PROWLER
17-0903430 2430 SANDERS ST 2017-09-19 04:32:44.557 CHECKING VEHICLE
17-0903429 2475 SANDERS ST 2017-09-19 04:16:54.707 CHECKING PERSON
17-0903428 17-11427 450 ROBINS ST 2017-09-19 04:13:14.520 DOMESTIC DISTURBANCE
17-0903427 17-11425 905 SKYLINE DR 2017-09-19 03:33:00.670 CHECKING PERSON
17-0903426 2240 DAVE WARD DR 2017-09-19 03:23:25.937 CHECKING VEHICLE
17-0903425 500 SOUTH GERMAN LN 2017-09-19 03:02:06.220 LOITERING
17-0903424 150 E OAK ST 2017-09-19 02:47:07.350 CHECKING VEHICLE
17-0903423 17-11426 2620 PRINCE ST 2017-09-19 02:46:41.417 LOITERING
17-0903422 1155 SKYLINE DR 2017-09-19 02:41:25.490 CHECKING PERSON
17-0903420 1840 LEE AV 2017-09-19 02:28:31.703 PROWLER
17-0903419 1930 RICH SMITH LN 2017-09-19 02:17:10.563 CHECKING PERSON
17-0903418 800 S HARKRIDER DR 2017-09-19 02:16:46.593 SUSPICIOUS PERSON
17-0903416 401 2ND ST 2017-09-19 02:00:33.443 CHECKING VEHICLE
17-0903415 17-11423 500 SOUTH GERMAN LN 2017-09-19 01:51:48.330 MISDEMEANOR WARRANT SERVICE
17-0903412 1400 PADGETT RD 2017-09-19 01:37:23.660 CHECKING VEHICLE
17-0903409 20 KINLEY DR 2017-09-19 01:06:59.380 CHECKING VEHICLE
17-0903407 207 WILLOW ST 2017-09-19 00:35:46.800 CHECKING PERSON
17-0903406 950 E 6TH ST 2017-09-19 00:25:16.737 CHECKING VEHICLE
17-0903405 129 I40WB 2017-09-19 00:24:36.067 RECKLESS DRIVER
17-0903403 601 ELSINGER BLVD 2017-09-19 00:20:33.913 ALARM
17-0903402 2545 FOREST VIEW DR 2017-09-19 00:16:16.463 ALARM
17-0903400 475 ROBINS ST 2017-09-18 23:52:16.137 DOMESTIC DISTURBANCE
17-0903399 551 MITCHELL ST 2017-09-18 23:45:09.500 BURGLARY
17-0903398 3430 IRBY DR 2017-09-18 23:43:51.893 SUSPICIOUS PERSON
17-0903397 17-11422 1025 S DONAGHEY AV 2017-09-18 23:40:00.590 CRIMINAL MISCHIEF
17-0903396 1109 OAK ST 2017-09-18 23:38:09.520 SUSPICIOUS PERSON
17-0903393 814 E OAK ST 2017-09-18 23:29:21.553 CHECKING PERSON
17-0903392 4 BRIERWOOD CIR 2017-09-18 23:24:14.217 REPOSSESSION
17-0903388 1840 LEE AV 2017-09-18 23:09:13.933 CRIMINAL MISCHIEF
17-0903387 100 BROOKSIDE DR 2017-09-18 23:06:52.590 BURGLARY
17-0903386 475 ROBINS ST 2017-09-18 22:51:53.380 DISTURBANCE
17-0903385 675 ROBINS ST 2017-09-18 22:51:48.320 CHECKING PERSON
17-0903383 1880 STERLING DR 2017-09-18 22:36:26.240 SUSPICIOUS VEHICLE
17-0903382 475 ROBINS ST 2017-09-18 22:19:10.060 BURGLARY
17-0903381 100 BROOKSIDE DR 2017-09-18 22:17:58.430 PROWLER
17-0903380 2125 HARKRIDER ST 2017-09-18 22:14:13.743 CHECKING PERSON
17-0903378 17-11419 401 2ND ST 2017-09-18 21:52:38.770 LOST PROPERTY
17-0903376 17-11420 1908 DAVE WARD DR 2017-09-18 21:45:48.017 DISTURBANCE
17-0903374 1940 AMELIA DR 2017-09-18 21:37:46.730 DOMESTIC DISTURBANCE
17-0903372 3430 IRBY DR 2017-09-18 21:34:34.883 OPEN DOOR/WINDOW/FENCE
17-0903371 835 S DONAGHEY AV 2017-09-18 21:32:41.260 VEHICLE TOW
17-0903370 835 S DONAGHEY AV 2017-09-18 21:30:31.083 VEHICLE TOW
17-0903369 1300 WATKINS ST 2017-09-18 21:22:57.857 SUSPICIOUS PERSON
17-0903368 1523 MILL ST 2017-09-18 21:06:25.333 CHECKING PERSON
17-0903367 3685 NOBLETT DR 2017-09-18 21:03:40.350 ABANDONED VEHICLE
17-0903366 3025 PEBBLE BEACH DR 2017-09-18 21:01:03.723 CRIMINAL MISCHIEF
17-0903365 1840 LEE AV 2017-09-18 20:59:06.327 SHOTS FIRED
17-0903364 17-11417 867 FENDLEY DR 2017-09-18 20:42:27.627 THEFT OF PROPERTY
17-0903363 1400 ROBINS ST 2017-09-18 20:38:45.320 REPOSSESSION
17-0903362 17-11418 2715 PRINCE ST 2017-09-18 20:34:07.347 DISTURBANCE
17-0903360 17-11416 350 E OAK ST 2017-09-18 20:20:16.720 DISTURBANCE
17-0903359 17-11415 1010 MAIN ST 2017-09-18 20:06:58.877 HARASSMENT
17-0903358 702 OAK ST 2017-09-18 20:05:30.027 STALLED VEHICLE
17-0903357 17-11494 1260 S AMITY RD 2017-09-18 19:55:31.873 BATTERY REPORT
17-0903356 17-11412 380 HARKRIDER ST 2017-09-18 19:53:15.397 THEFT OF PROPERTY
17-0903355 17-11414 1701 HAIRSTON AV 2017-09-18 19:48:19.050 DOMESTIC DISTURBANCE
17-0903354 17-11413 501 DONAGHEY AV 2017-09-18 19:47:00.093 ACCIDENT - PROPERTY DAMAGE
17-0903353 1352 COLLEGE AV 2017-09-18 19:41:00.643 SUPPLEMENT REPORT CALL
17-0903349 120 S HARKRIDER DR 2017-09-18 19:19:48.983 CHECK ON THE WELFARE
17-0903348 1700 MUSEUM RD 2017-09-18 19:15:42.933 DISTURBANCE
17-0903347 17-11411 215 SKYLINE DR 2017-09-18 19:12:00.530 CRIMINAL MISCHIEF
17-0903346 2003 DONAGHEY AV 2017-09-18 19:02:02.480 SUPPLEMENT REPORT CALL
17-0903345 131 GRAND FALLS 2017-09-18 18:57:49.520 DISTURBANCE
17-0903343 2003 DONAGHEY AV 2017-09-18 18:39:41.907 SUPPLEMENT REPORT CALL
17-0903342 17-11410 2900 DAVE WARD DR 2017-09-18 18:25:36.947 ACCIDENT - PROPERTY DAMAGE
17-0903341 475 ROBINS ST 2017-09-18 18:18:32.927 SUPPLEMENT REPORT CALL
17-0903340 530 S DONAGHEY AV 2017-09-18 18:05:39.183 CHECK ON THE WELFARE
17-0903339 17-11409 1751 OLD MORRILTON HWY 2017-09-18 18:03:49.497 ACCIDENT - PROPERTY DAMAGE
17-0903338 17-11407 801 SALEM RD 2017-09-18 17:51:29.350 ACCIDENT - HIT AND RUN
17-0903337 650 SKYLINE DR 2017-09-18 17:34:25.457 STALLED VEHICLE
17-0903335 1175 MORNINGSIDE DR 2017-09-18 17:17:55.133 SUPPLEMENT REPORT CALL
17-0903334 2745 CARL STUART ST 2017-09-18 17:16:41.593 RUNAWAY
17-0903333 17-11405 620 1ST ST 2017-09-18 17:13:45.680 CRIMINAL MISCHIEF
17-0903332 17-11403 2302 COLLEGE AV 2017-09-18 17:08:29.040 ACCIDENT - PRIVATE PROPERTY
17-0903331 1615 WESTLAKE DR 2017-09-18 17:01:48.513 DOMESTIC DISTURBANCE
17-0903329 17-11408 818 DRAKE DR 2017-09-18 16:57:35.350 BURGLARY
17-0903328 475 ROBINS ST 2017-09-18 16:52:11.080 SUPPLEMENT REPORT CALL
17-0903327 703 5TH ST 2017-09-18 16:48:35.120 ALARM - HOLD UP or PANIC
17-0903326 618 OAK ST 2017-09-18 16:44:17.867 VEHICLE TOW
17-0903325 17-11406 815 E OAK ST 2017-09-18 16:43:06.563 ATTEMPT TO CONTACT
17-0903323 89 MARY LN 2017-09-18 16:40:49.730 SUPPLEMENT REPORT CALL
17-0903321 3430 IRBY DR 2017-09-18 16:28:45.310 CITIZEN ASSIST
17-0903314 1915 RICH SMITH LN 2017-09-18 15:59:02.913 FRAUD
17-0903312 17-11398 1405 LOLLIE RD 2017-09-18 15:55:16.343 ACCIDENT - PROPERTY DAMAGE
17-0903311 17-11397 3700 DAVE WARD DR 2017-09-18 15:53:32.890 ACCIDENT - HIT AND RUN
17-0903310 17-11393 2205 ROSEMARY DR 2017-09-18 15:45:28.903 FRAUD
17-0903309 17-11394 2699 DONAGHEY AV 2017-09-18 15:41:40.070 ACCIDENT - HIT AND RUN
17-0903308 1600 COUNTRY CLUB RD 2017-09-18 15:33:33.353 RECKLESS DRIVER
17-0903306 500 OLIVER ST 2017-09-18 14:57:22.947 SUSPICIOUS ACTIVITY
17-0903305 855 S SALEM RD 2017-09-18 14:55:43.377 CHECK ON THE WELFARE
17-0903304 17-11392 1226 HARKRIDER ST 2017-09-18 14:47:37.143 ACCIDENT - PROPERTY DAMAGE
17-0903303 1913 DUNCAN ST 2017-09-18 14:39:18.027 OPEN DOOR/WINDOW/FENCE
17-0903302 120 2ND ST 2017-09-18 14:38:31.077 BURGLARY
17-0903297 1620 MIDDLE RD 2017-09-18 14:18:00.360 SUPPLEMENT REPORT CALL
17-0903296 39 WHITE OAK DR 2017-09-18 14:05:17.603 SUSPICIOUS PERSON
17-0903295 17-11388 580 E DAVE WARD DR 2017-09-18 14:02:59.883 ACCIDENT - PROPERTY DAMAGE
17-0903292 17-11390 700 SALEM RD 2017-09-18 14:01:21.210 ACCIDENT - PRIVATE PROPERTY
17-0903289 17-11387 524 1ST AV 2017-09-18 13:49:26.850 ACCIDENT - PERSONAL INJURY
17-0903288 2100 MEADOWLAKE RD 2017-09-18 13:45:14.303 CIVIL STAND BY
17-0903287 1555 EXCHANGE AV 2017-09-18 13:35:23.490 AGENCY ASSIST
17-0903286 17-11389 814 E OAK ST 2017-09-18 13:35:11.947 ACCIDENT - PROPERTY DAMAGE
17-0903285 17-11386 1175 MORNINGSIDE DR 2017-09-18 13:34:15.920 ABUSE
17-0903281 17-11384 823 OAK ST 2017-09-18 13:21:55.540 ACCIDENT - PROPERTY DAMAGE
17-0903280 2125 HARKRIDER ST 2017-09-18 13:13:53.583 ENDANGERING WELFARE OF MINOR
17-0903275 2017-09-18 12:57:14.630 ATTEMPT TO CONTACT
17-0903274 2205 ROSEMARY DR 2017-09-18 12:57:00.173 FRAUD
17-0903273 1201 OAK ST 2017-09-18 12:56:15.747 FOUND PROPERTY
17-0903272 1500 DAVIS ST 2017-09-18 12:55:26.463 SUSPICIOUS ACTIVITY
17-0903271 17-11378 2135 HARKRIDER ST 2017-09-18 12:54:46.300 ACCIDENT - PROPERTY DAMAGE
17-0903269 3200 DAVE WARD DR 2017-09-18 12:53:14.467 ATTEMPT TO CONTACT
17-0903268 2003 DONAGHEY AV 2017-09-18 12:53:07.057 SUPPLEMENT REPORT CALL
17-0903267 1701 HUTTO ST 2017-09-18 12:45:36.917 SERVING SUBPOENA
17-0903266 1105 PRAIRIE ST 2017-09-18 12:44:32.097 ATTEMPT TO CONTACT
17-0903265 17-11383 823 OAK ST 2017-09-18 12:42:04.667 CHECKING PERSON
17-0903263 1105 PRAIRIE ST 2017-09-18 12:27:40.343 FOUND PROPERTY
17-0903262 443 HELEN ST 2017-09-18 12:26:37.237 ATTEMPT TO CONTACT
17-0903260 101 OAK ST 2017-09-18 12:13:28.713 SUPPLEMENT REPORT CALL
17-0903257 443 HELEN ST 2017-09-18 12:01:29.547 ATTEMPT TO CONTACT
17-0903255 1909 TYLER ST 2017-09-18 11:39:28.980 CITIZEN ASSIST
17-0903251 17-11375 600 SOUTH GERMAN LN 2017-09-18 11:22:14.607 ACCIDENT - PRIVATE PROPERTY
17-0903250 17-11374 125 OAKLAWN DR 2017-09-18 11:11:50.847 LOST CHILD-FOUND CHILD
17-0903248 1316 BELLEMEADE DR 2017-09-18 10:59:45.317 SUPPLEMENT REPORT CALL
17-0903245 17-11373 725 2ND AV 2017-09-18 10:53:03.970 BURGLARY
17-0903241 1835 LUCILLE ST 2017-09-18 10:41:27.590 ATTEMPT TO CONTACT
17-0903238 17-11371 4905 ABBEY GAIL DR 2017-09-18 10:35:37.253 COMPUTER CRIMES
17-0903236 902 DONAGHEY AV 2017-09-18 10:27:55.960 CHECK ON THE WELFARE
17-0903235 17-11370 3501 COLLEGE AV 2017-09-18 10:21:29.443 THEFT OF PROPERTY
17-0903234 17-11368 1105 PRAIRIE ST 2017-09-18 10:21:01.393 FRAUD
17-0903232 17-11369 5140 PRINCE ST 2017-09-18 10:19:21.143 ACCIDENT - PROPERTY DAMAGE
17-0903230 2100 MEADOWLAKE RD 2017-09-18 10:15:10.630 ATTEMPT TO CONTACT
17-0903227 1405 S DONAGHEY AV 2017-09-18 10:09:37.003 AGENCY ASSIST
17-0903225 475 ROBINS ST 2017-09-18 09:50:43.873 ATTEMPT TO CONTACT
17-0903223 17-11367 1155 SKYLINE DR 2017-09-18 09:43:40.713 SHOPLIFTING
17-0903221 1100 MAIN ST 2017-09-18 09:36:42.560 THEFT OF PROPERTY
17-0903219 2000 KEATHLEY DR 2017-09-18 09:30:22.923 ATTEMPT TO CONTACT
17-0903218 300 E DAVE WARD DR 2017-09-18 09:24:01.067 DISTURBANCE
17-0903217 1018 FAULKNER ST 2017-09-18 09:20:03.837 THEFT OF PROPERTY
17-0903216 504 E OAK ST 2017-09-18 09:17:59.620 STALLED VEHICLE
17-0903211 2100 MEADOWLAKE RD 2017-09-18 08:58:49.427 CIVIL MATTER
17-0903210 1501 HARKRIDER ST 2017-09-18 08:57:28.150 TRAFFIC PROBLEM-CONTROL
17-0903209 701 2ND ST 2017-09-18 08:56:48.150 ATTEMPT TO CONTACT
17-0903208 1680 FAVRE LN 2017-09-18 08:55:00.490 DOMESTIC DISTURBANCE
17-0903207 17-11364 1105 PRAIRIE ST 2017-09-18 08:54:25.730 UNAUTHORIZED USE OF MOTOR VEHICLE
17-0903202 1025 S DONAGHEY AV 2017-09-18 08:37:44.477 ATTEMPT TO CONTACT
17-0903201 1025 S DONAGHEY AV 2017-09-18 08:36:13.013 CIVIL MATTER
17-0903199 17-11361 905 SKYLINE DR 2017-09-18 08:25:25.077 DISTURBANCE
17-0903197 17-11359 2300 PRINCE ST 2017-09-18 08:19:58.120 ACCIDENT - PRIVATE PROPERTY
17-0903196 1750 VILLAGE COMMONS DR 2017-09-18 08:14:26.953 ATTEMPT TO CONTACT
17-0903195 17-11360 900 SOUTH GERMAN LN 2017-09-18 08:13:07.610 ACCIDENT - PROPERTY DAMAGE
17-0903194 1701 HUTTO ST 2017-09-18 08:08:36.707 SERVING SUBPOENA
17-0903193 2170 HARKRIDER ST 2017-09-18 07:59:57.150 ALARM
17-0903192 3902 HWY 25 N 2017-09-18 07:52:31.213 STALLED VEHICLE
17-0903191 17-11362 475 ROBINS ST 2017-09-18 07:50:10.787 ATTEMPT TO CONTACT
17-0903190 820 NOTTINGHAM DR 2017-09-18 07:39:37.237 ALARM
17-0903189 17-11358 3205 PEBBLE BEACH DR 2017-09-18 07:38:32.873 BREAKING OR ENTERING
17-0903188 1500 MUSEUM RD 2017-09-18 07:37:18.737 ALARM
17-0903187 405 CHEYENNE LN 2017-09-18 07:34:04.247 CITIZEN ASSIST
17-0903186 17-11356 3800 COLLEGE AV 2017-09-18 07:24:35.270 THEFT OF PROPERTY
17-0903183 17-11354 475 ROBINS ST 2017-09-18 06:59:15.140 BURGLARY
17-0903182 17-11355 101 OAK ST 2017-09-18 06:56:11.693 FRAUD
17-0903180 455 HOGAN LN 2017-09-18 06:30:24.903 ALARM
17-0903176 818 4TH ST 2017-09-18 04:32:33.787 CHECK ON THE WELFARE
17-0903175 475 ROBINS ST 2017-09-18 04:21:32.633 DISTURBANCE
17-0903174 515 HARKRIDER ST 2017-09-18 04:15:13.530 ALARM
17-0903173 2310 ROBINSON AV 2017-09-18 03:30:45.960 CHECKING VEHICLE
17-0903170 129 I40EB 2017-09-18 02:32:25.097 RECKLESS DRIVER
17-0903169 317 OAK ST 2017-09-18 02:30:57.530 CHECKING PERSON
17-0903168 150 E OAK ST 2017-09-18 02:19:37.570 CHECKING PERSON
17-0903167 2302 COLLEGE AV 2017-09-18 02:14:27.180 ATTEMPT TO CONTACT
17-0903165 1705 MEADOWLAKE RD 2017-09-18 01:28:05.170 ACCIDENT - PROPERTY DAMAGE
17-0903162 3065 PEBBLE BEACH DR 2017-09-18 01:04:30.137 REPOSSESSION
17-0903160 2101 PRINCE ST 2017-09-18 00:55:03.260 AGENCY ASSIST
17-0903156 17-11353 456 HARKRIDER ST 2017-09-17 23:33:08.023 THEFT OF PROPERTY
17-0903155 810 ELSINGER BLVD 2017-09-17 22:51:35.923 CHECKING PERSON
17-0903154 1620 MIDDLE RD 2017-09-17 22:41:57.047 DISTURBANCE
17-0903146 1200 DAVE WARD DR 2017-09-17 21:29:30.750 STALLED VEHICLE
17-0903145 475 ROBINS ST 2017-09-17 21:28:05.707 BURGLARY
17-0903144 900 EXCHANGE AV 2017-09-17 21:25:13.137 TRAFFIC LIGHT PROBLEM
17-0903143 221 E OAK ST 2017-09-17 21:19:05.533 CHECK ON THE WELFARE
17-0903138 2033 JOHNSTON AV 2017-09-17 20:14:57.350 ALARM
17-0903137 17-11349 2799 SALEM RD 2017-09-17 20:14:32.920 ACCIDENT - PROPERTY DAMAGE
17-0903132 1001 HARKRIDER ST 2017-09-17 19:54:22.820 RECKLESS DRIVER
17-0903131 17-11347 4095 PRINCE ST 2017-09-17 19:48:54.663 FORGERY
17-0903130 475 ROBINS ST 2017-09-17 19:41:11.817 CRIMINAL MISCHIEF
17-0903128 3920 RILEY RENEE CV 2017-09-17 19:23:58.937 ALARM
17-0903126 475 ROBINS ST 2017-09-17 19:20:49.417 HARASSMENT
17-0903125 130 GRAND FALLS 2017-09-17 19:19:29.277 CIVIL STAND BY
17-0903123 17-11346 1090 SKYLINE DR 2017-09-17 18:55:02.493 ACCIDENT - HIT AND RUN
17-0903122 600 SOUTH GERMAN LN 2017-09-17 18:50:10.623 ALARM
17-0903121 602 4TH AV 2017-09-17 18:41:11.200 LOST CHILD-FOUND CHILD
17-0903120 924 MAIN ST 2017-09-17 18:31:45.847 ALARM
17-0903119 2606 FLORENCE MATTISON DR 2017-09-17 18:14:28.680 CHECK ON THE WELFARE
17-0903118 23 SHADY VALLEY DR 2017-09-17 18:10:13.323 CIVIL MATTER
17-0903117 17-11345 855 SALEM RD 2017-09-17 18:06:31.587 ACCIDENT - PRIVATE PROPERTY
17-0903116 835 S DONAGHEY AV 2017-09-17 18:00:18.533 SUPPLEMENT REPORT CALL
17-0903115 17-11344 220 E OAK ST 2017-09-17 17:54:21.680 ACCIDENT - PRIVATE PROPERTY
17-0903113 1000 EAST GERMAN LN 2017-09-17 17:30:10.990 RECKLESS DRIVER
17-0903112 452 CORPORATE DR 2017-09-17 17:20:52.290 SUSPICIOUS PERSON
17-0903110 17-11342 455 ELSINGER BLVD 2017-09-17 16:53:45.370 ACCIDENT - PRIVATE PROPERTY
17-0903109 835 S DONAGHEY AV 2017-09-17 16:47:54.967 SUPPLEMENT REPORT CALL
17-0903108 1811 MARTIN ST 2017-09-17 16:45:41.107 ATTEMPT TO CONTACT
17-0903107 2235 E OAK ST 2017-09-17 16:43:28.060 TRAFFIC PROBLEM-CONTROL
17-0903106 17-11341 2200 WASHINGTON AV 2017-09-17 16:42:28.327 TERRORISTIC THREATENING
17-0903105 1105 PRAIRIE ST 2017-09-17 16:35:56.150 CHECKING PERSON
17-0903102 1815 E OAK ST 2017-09-17 16:07:41.743 CITIZEN ASSIST
17-0903101 2885 PRINCE ST 2017-09-17 16:05:56.257 ALARM - BANK
17-0903100 17-11339 1530 SILVER FALLS 2017-09-17 15:37:30.493 HARASSMENT
17-0903099 899 ELSINGER BLVD 2017-09-17 15:29:31.407 RECKLESS DRIVER
17-0903098 17-11340 1014 HARKRIDER ST 2017-09-17 15:26:21.360 911 HANGUP CALL
17-0903096 1105 PRAIRIE ST 2017-09-17 15:22:17.047 ATTEMPT TO CONTACT
17-0903095 2080 BROADVIEW AV 2017-09-17 15:08:22.347 CHECK ON THE WELFARE
17-0903094 3135 TYLER ST 2017-09-17 15:06:30.540 DISTURBANCE
17-0903093 1800 HOGAN LN 2017-09-17 15:06:09.920 CHECKING PERSON
17-0903091 17-11343 1150 S AMITY RD 2017-09-17 14:59:14.437 FELONY WARRANT SERVICE
17-0903090 17-11338 130 GRAND FALLS 2017-09-17 14:54:51.150 THEFT OF VEHICLE
17-0903088 475 ROBINS ST 2017-09-17 14:43:51.647 ATTEMPT TO CONTACT
17-0903085 305 E OAK ST 2017-09-17 14:25:36.210 CHECK ON THE WELFARE
17-0903084 47 FRANCES DR 2017-09-17 14:22:39.097 CIVIL MATTER
17-0903082 100 BROOKSIDE DR 2017-09-17 14:16:58.553 ATTEMPT TO CONTACT
17-0903078 475 ROBINS ST 2017-09-17 13:51:39.990 UNAUTHORIZED USE OF MOTOR VEHICLE
17-0903077 17-11336 100 BROOKSIDE DR 2017-09-17 13:51:28.553 DOMESTIC DISTURBANCE
17-0903076 17-11335 3900 DAVE WARD DR 2017-09-17 13:40:46.710 CIVIL MATTER
17-0903075 254 OAK ST 2017-09-17 13:40:38.293 CHECK ON THE WELFARE
17-0903073 2350 SANDERS ST 2017-09-17 13:22:40.097 CHECK ON THE WELFARE
17-0903072 3200 VAIL AV 2017-09-17 13:18:51.253 ALARM
17-0903071 501 ELSINGER BLVD 2017-09-17 13:18:37.147 DISTURBANCE
17-0903069 801 SCHERMAN OAKS CIR 2017-09-17 13:04:47.003 ALARM
17-0903068 1405 S DONAGHEY AV 2017-09-17 12:46:24.193 CIVIL MATTER
17-0903067 17-11333 3106 FRIENDSHIP RD 2017-09-17 12:45:47.443 FOUND PROPERTY
17-0903066 801 LOCUST AV 2017-09-17 12:39:34.197 DOMESTIC DISTURBANCE
17-0903065 2165 BLANEY HILL RD 2017-09-17 12:38:10.770 HARASSING COMMUNICATIONS
17-0903064 1701 DAVE WARD DR 2017-09-17 12:37:00.220 SERVING SUBPOENA
17-0903063 615 3RD AV 2017-09-17 12:33:08.187 ATTEMPT TO CONTACT
17-0903061 380 HARKRIDER ST 2017-09-17 12:07:35.013 LOST PROPERTY
17-0903060 1030 SKYLINE DR 2017-09-17 12:06:09.847 ATTEMPT TO CONTACT
17-0903059 17-11332 455 ELSINGER BLVD 2017-09-17 12:04:08.107 ACCIDENT - PRIVATE PROPERTY
17-0903058 17 NORTHWOOD DR 2017-09-17 11:58:11.640 HARASSING COMMUNICATIONS
17-0903057 1405 S DONAGHEY AV 2017-09-17 11:53:18.553 ATTEMPT TO CONTACT
17-0903056 1224 JERSEY ST 2017-09-17 11:49:53.467 TRESPASSING
17-0903055 27 GLENDALE DR 2017-09-17 11:43:11.640 AGENCY ASSIST
17-0903052 17-11331 960 JEANETTE DR 2017-09-17 11:25:54.013 SUPPLEMENT REPORT CALL
17-0903050 3430 IRBY DR 2017-09-17 11:04:06.840 CHECK ON THE WELFARE
17-0903049 2330 SANDERS ST 2017-09-17 10:47:00.103 CIVIL STAND BY
17-0903048 2965 ASHLEY DR 2017-09-17 10:34:27.407 ALARM
17-0903047 99 AZALEA LP 2017-09-17 10:25:35.903 LOUD NOISE-MUSIC
17-0903046 1600 S DONAGHEY AV 2017-09-17 10:07:04.277 ACCIDENT - PERSONAL INJURY
17-0903045 17-11329 1600 S DONAGHEY AV 2017-09-17 10:07:02.257 ACCIDENT - PERSONAL INJURY
17-0903042 17-11330 1931 MARTIN ST 2017-09-17 09:45:50.307 THEFT OF IDENTITY
17-0903041 2885 PRINCE ST 2017-09-17 09:38:38.913 PURSUIT DRILL
17-0903039 244 OAK ST 2017-09-17 09:37:22.237 SUPPLEMENT REPORT CALL
17-0903034 505 E DAVE WARD DR 2017-09-17 08:49:34.577 ATTEMPT TO CONTACT
17-0903032 17-11328 855 SALEM RD 2017-09-17 08:27:49.067 ACCIDENT - PROPERTY DAMAGE
17-0903031 2610 ORCHARD PARK DR 2017-09-17 08:21:51.683 ALARM
17-0903030 3100 IRBY DR 2017-09-17 08:12:22.713 BATTERY REPORT
17-0903029 466 HARKRIDER ST 2017-09-17 08:05:35.973 DOMESTIC DISTURBANCE
17-0903027 620 ELSINGER BLVD 2017-09-17 07:05:54.103 ALARM
17-0903026 5020 COLLEGE AV 2017-09-17 06:35:27.390 DOMESTIC DISTURBANCE
17-0903025 1205 E SKYLINE DR 2017-09-17 04:47:26.927 CHECKING VEHICLE
17-0903024 17-11327 2445 CHRISTINA LN 2017-09-17 04:32:58.767 SUSPICIOUS VEHICLE
17-0903022 620 1ST ST 2017-09-17 03:55:46.717 CHECKING BUILDING
17-0903015 2619 W MARTIN ST 2017-09-17 01:51:40.023 DOMESTIC DISTURBANCE
17-0903014 1404 CALDWELL ST 2017-09-17 01:46:32.080 LOUD NOISE-MUSIC
17-0903012 20 KINLEY DR 2017-09-17 01:38:32.803 CHECKING VEHICLE
17-0903011 2017-09-17 01:29:11.743 SUSPICIOUS ACTIVITY
17-0903008 17-11322 1725 POTEETE DR 2017-09-17 00:57:11.243 HARASSMENT
17-0903004 1150 INGRAM ST 2017-09-17 00:11:25.653 DISTURBANCE
17-0903003 1601 S DONAGHEY AV 2017-09-17 00:03:47.143 CHECKING VEHICLE
17-0903002 1701 HAIRSTON AV 2017-09-16 23:38:06.480 LOUD NOISE-MUSIC
17-0903001 2210 DILLARD DR 2017-09-16 23:29:48.370 ATTEMPT TO CONTACT
17-0903000 475 ROBINS ST 2017-09-16 23:25:31.813 DISCHARGING FIREWORKS
17-0902999 17-11321 675 AMITY RD 2017-09-16 23:19:37.380 THEFT OF SERVICES
17-0902997 17-11324 2099 MARILYN DR 2017-09-16 23:12:49.733 TRAFFIC PROBLEM-CONTROL
17-0902995 17-11325 1555 WINSTEAD DR 2017-09-16 23:08:53.397 PARKING VIOLATION
17-0902994 899 MERRIMAN ST 2017-09-16 22:55:54.630 ALARM
17-0902993 1065 CLAYTON ST 2017-09-16 22:55:47.347 ALARM
17-0902992 39 KENSINGTON DR 2017-09-16 22:53:57.863 ALARM
17-0902991 2890 DAVE WARD DR 2017-09-16 22:51:18.503 INTOXICATED DRIVER
17-0902990 17-11320 3900 DAVE WARD DR 2017-09-16 22:34:10.250 ACCIDENT - PRIVATE PROPERTY
17-0902989 3800 COLLEGE AV 2017-09-16 22:29:05.263 CHECKING VEHICLE
17-0902988 409 SHANNON CIR 2017-09-16 22:14:54.483 TRESPASSING
17-0902986 4550 OLD MORRILTON HWY 2017-09-16 21:37:22.303 ALARM
17-0902985 244 OAK ST 2017-09-16 21:36:39.203 SUPPLEMENT REPORT CALL
17-0902984 17-11319 900 INGRAM ST 2017-09-16 21:18:33.920 CHECK ON THE WELFARE
17-0902982 601 ELSINGER BLVD 2017-09-16 21:13:08.737 SUSPICIOUS PERSON
17-0902979 450 ROBINS ST 2017-09-16 20:52:26.233 DISCHARGING FIREWORKS
17-0902978 2730 DAVE WARD DR 2017-09-16 20:22:02.533 CRIMINAL MISCHIEF
17-0902977 931 FAULKNER ST 2017-09-16 20:17:01.523 SHOTS FIRED
17-0902976 1530 SILVER FALLS 2017-09-16 20:16:47.480 SUPPLEMENT REPORT CALL
17-0902975 475 ROBINS ST 2017-09-16 20:09:00.683 SHOTS FIRED
17-0902974 409 SHANNON CIR 2017-09-16 19:52:56.367 DISTURBANCE
17-0902973 17-11317 500 COUNTRY CLUB RD 2017-09-16 19:51:46.720 ACCIDENT - PROPERTY DAMAGE
17-0902972 17-11318 1115 E OAK ST 2017-09-16 19:49:42.403 FRAUD
17-0902971 2730 DAVE WARD DR 2017-09-16 19:49:07.307 SHOTS FIRED
17-0902970 3165 MAJESTIC CIR 2017-09-16 19:42:52.633 CIVIL MATTER
17-0902969 17-11315 1026 VAN RONKLE ST 2017-09-16 19:32:24.703 ACCIDENT - PRIVATE PROPERTY
17-0902968 2730 DAVE WARD DR 2017-09-16 19:32:03.473 DISTURBANCE
17-0902967 17-11316 1060 S AMITY RD 2017-09-16 19:23:11.730 FRAUD
17-0902966 1500 ARDEN LN 2017-09-16 19:16:08.330 CRIMINAL MISCHIEF
17-0902965 529 3RD AV 2017-09-16 18:54:57.727 LOUD NOISE-MUSIC
17-0902962 17-11312 1001 MCNUTT RD 2017-09-16 18:36:12.400 DOMESTIC DISTURBANCE
17-0902961 17-11314 960 JEANETTE DR 2017-09-16 18:33:59.527 THEFT OF PROPERTY
17-0902960 475 ROBINS ST 2017-09-16 18:33:45.307 CHECK ON THE WELFARE
17-0902959 1001 MAIN ST 2017-09-16 18:31:52.383 INTOXICATED DRIVER
17-0902958 17-11313 1100 E DAVE WARD DR 2017-09-16 18:28:49.243 ACCIDENT - PROPERTY DAMAGE
17-0902957 5110 OLD MORRILTON HWY 2017-09-16 18:25:10.527 CHECK ON THE WELFARE
17-0902956 2017-09-16 18:11:53.903 ATTEMPT TO CONTACT
17-0902953 5 BURFORD DR 2017-09-16 17:22:51.247 ATTEMPT TO CONTACT
17-0902952 17-11310 1278 S AMITY RD 2017-09-16 17:08:37.993 THEFT OF PROPERTY
17-0902951 17-11311 4485 THOMPSON ST 2017-09-16 17:00:51.137 BATTERY REPORT
17-0902950 700 EXCHANGE AV 2017-09-16 16:53:04.850 TRAFFIC PROBLEM-CONTROL
17-0902949 655 ELSINGER BLVD 2017-09-16 16:43:46.963 CHECK ON THE WELFARE
17-0902948 17-11309 244 OAK ST 2017-09-16 16:34:48.560 THEFT OF VEHICLE
17-0902947 17-11308 1405 ROBINS ST 2017-09-16 16:23:32.737 ACCIDENT - PROPERTY DAMAGE
17-0902946 101 OAK ST 2017-09-16 16:21:48.740 THEFT OF PROPERTY
17-0902945 414 OAK ST 2017-09-16 16:20:50.067 ALARM - BANK
17-0902944 1105 PRAIRIE ST 2017-09-16 16:19:22.527 ATTEMPT TO CONTACT
17-0902943 201 SKYLINE DR 2017-09-16 16:05:31.980 TRAFFIC PROBLEM-CONTROL
17-0902942 17-11307 801 ELSINGER BLVD 2017-09-16 15:54:07.543 ACCIDENT - PROPERTY DAMAGE
17-0902939 1500 HARKRIDER ST 2017-09-16 15:25:39.870 TRAFFIC PROBLEM-CONTROL
17-0902937 324 HELEN ST 2017-09-16 15:15:11.697 ATTEMPT TO CONTACT
17-0902936 2400 MARKET PLAZA DR 2017-09-16 15:10:44.997 UNAUTHORIZED USE OF MOTOR VEHICLE
17-0902935 1600 WESTLAKE DR 2017-09-16 15:08:04.423 DOMESTIC DISTURBANCE
17-0902933 17-11305 420 E OAK ST 2017-09-16 14:31:44.930 RECKLESS DRIVER
17-0902932 17-11306 2302 COLLEGE AV 2017-09-16 13:57:31.047 ATTEMPT TO CONTACT
17-0902931 1835 TYLER ST 2017-09-16 13:35:16.713 UNKNOWN TROUBLE
17-0902930 2850 PRINCE ST 2017-09-16 13:35:14.477 SUSPICIOUS PERSON
17-0902929 17-11304 850 OAK ST 2017-09-16 13:33:52.053 ACCIDENT - PRIVATE PROPERTY
17-0902928 41 ECHO LN 2017-09-16 13:25:31.040 CIVIL MATTER
17-0902927 1775 OLD MORRILTON HWY 2017-09-16 13:13:31.730 TRAFFIC PROBLEM-CONTROL
17-0902926 17-11302 2100 DAVE WARD DR 2017-09-16 12:54:08.767 ACCIDENT - PROPERTY DAMAGE
17-0902924 17-11301 823 OAK ST 2017-09-16 12:47:49.930 ACCIDENT - PROPERTY DAMAGE
17-0902923 1620 MIDDLE RD 2017-09-16 12:41:48.383 REPOSSESSION
17-0902922 17-11300 1105 PRAIRIE ST 2017-09-16 12:35:03.600 AGENCY ASSIST
17-0902921 2840 DAVE WARD DR 2017-09-16 12:23:26.763 ATTEMPT TO CONTACT
17-0902917 324 HELEN ST 2017-09-16 11:48:50.390 DISTURBANCE
17-0902916 17-11299 100 BROOKSIDE DR 2017-09-16 11:40:15.263 BURGLARY
17-0902915 2017-09-16 11:27:28.553 ATTEMPT TO CONTACT
17-0902914 17-11297 1105 PRAIRIE ST 2017-09-16 11:14:27.467 AGENCY ASSIST
17-0902912 1310 DAVIS ST 2017-09-16 11:10:42.890 ATTEMPT TO CONTACT
17-0902911 1025 CLIFTON ST 2017-09-16 11:09:05.807 TERRORISTIC THREATENING
17-0902910 17-11298 801 ELSINGER BLVD 2017-09-16 11:03:52.660 ACCIDENT - PRIVATE PROPERTY
17-0902909 2235 DAVE WARD DR 2017-09-16 10:58:25.233 DOMESTIC DISTURBANCE
17-0902908 17-11295 1105 PRAIRIE ST 2017-09-16 10:50:35.233 AGENCY ASSIST
17-0902907 2730 DAVE WARD DR 2017-09-16 10:42:35.197 SUPPLEMENT REPORT CALL
17-0902906 17-11296 810 PARKWAY ST 2017-09-16 10:37:53.743 ATTEMPT TO CONTACT
17-0902905 701 3RD AV 2017-09-16 10:34:37.127 STALLED VEHICLE
17-0902904 1090 SKYLINE DR 2017-09-16 10:28:41.710 LOST PROPERTY
17-0902902 1899 TUSCANY DR 2017-09-16 10:25:08.713 PARKING VIOLATION
17-0902901 2000 KEATHLEY DR 2017-09-16 10:21:14.720 SUPPLEMENT REPORT CALL
17-0902900 17-11294 3104 DOGWOOD TRL 2017-09-16 10:13:23.077 FOUND PROPERTY
17-0902899 17-11293 3715 PRINCE ST 2017-09-16 10:03:57.857 BREAKING OR ENTERING
17-0902896 17-11292 116 OAK ST 2017-09-16 09:53:49.263 ACCIDENT - PROPERTY DAMAGE
17-0902893 2000 KEATHLEY DR 2017-09-16 09:10:39.593 SUPPLEMENT REPORT CALL
17-0902892 2730 DAVE WARD DR 2017-09-16 09:07:52.300 SUPPLEMENT REPORT CALL
17-0902891 17-11291 107 CLUB LN 2017-09-16 09:01:08.147 CHECK ON THE WELFARE
17-0902889 424 E 6TH ST 2017-09-16 08:28:33.707 CHECKING PERSON
17-0902887 17-11289 2000 KEATHLEY DR 2017-09-16 08:08:50.940 UNAUTHORIZED USE OF MOTOR VEHICLE
17-0902886 17-11290 2920 LAKEVIEW ACRES RD 2017-09-16 08:06:26.683 ACCIDENT - PRIVATE PROPERTY
17-0902880 2430 SANDERS ST 2017-09-16 07:24:42.143 ATTEMPT TO CONTACT
17-0902879 1 KENSINGTON DR 2017-09-16 07:13:01.197 TRAFFIC PROBLEM-CONTROL
17-0902877 5010 TRINITY CROSSING DR 2017-09-16 05:39:56.617 SUSPICIOUS ACTIVITY
17-0902875 175 E OAK ST 2017-09-16 05:18:26.080 ATTEMPT TO CONTACT
17-0902874 6195 DAVE WARD DR 2017-09-16 04:21:01.280 AGENCY ASSIST
17-0902870 1000 MORNINGSIDE DR 2017-09-16 04:02:05.827 CHECKING VEHICLE
17-0902869 3205 CIMARRON DR 2017-09-16 03:57:10.320 CHECKING BUILDING
17-0902867 2165 BLANEY HILL RD 2017-09-16 03:42:15.580 SUSPICIOUS VEHICLE
17-0902866 407 OAK ST 2017-09-16 03:37:19.647 SUSPICIOUS PERSON
17-0902863 1620 MIDDLE RD 2017-09-16 03:21:35.340 CHECKING VEHICLE
17-0902862 816 E OAK ST 2017-09-16 02:56:55.980 CHECK ON THE WELFARE
17-0902861 545 SKYLINE DR 2017-09-16 02:44:59.603 ACCIDENT - PRIVATE PROPERTY
17-0902859 2420 BROADVIEW AV 2017-09-16 02:37:35.640 CHECKING VEHICLE
17-0902858 17-11288 2730 DAVE WARD DR 2017-09-16 02:22:19.097 THEFT OF VEHICLE
17-0902857 28 BRIERWOOD CIR 2017-09-16 02:18:17.937 SUSPICIOUS ACTIVITY
17-0902854 675 AMITY RD 2017-09-16 02:03:34.927 SUSPICIOUS PERSON
17-0902853 12 SOUTH HAMPTON DR 2017-09-16 01:59:51.233 CHECKING VEHICLE
17-0902850 2102 BRUCE ST 2017-09-16 01:49:30.590 AGENCY ASSIST
17-0902849 17-11287 175 E OAK ST 2017-09-16 01:42:51.153 CHECK ON THE WELFARE
17-0902848 425 2ND AV 2017-09-16 01:30:24.450 SUSPICIOUS ACTIVITY
17-0902846 17-11286 205 E OAK ST 2017-09-16 00:50:34.620 ACCIDENT - PRIVATE PROPERTY
17-0902845 500 SOUTH GERMAN LN 2017-09-16 00:49:28.830 FELONY WARRANT SERVICE
17-0902844 17-11285 1600 WASHINGTON AV 2017-09-16 00:33:01.987 INTOXICATED PERSON
17-0902841 2400 MARKET PLAZA DR 2017-09-16 00:02:21.560 CHECKING VEHICLE
17-0902838 501 ELSINGER BLVD 2017-09-15 23:03:51.590 RECKLESS DRIVER
17-0902837 2170 ROSEMARY DR 2017-09-15 22:52:41.813 LOUD NOISE-MUSIC
17-0902836 17-11284 24 AZALEA LP 2017-09-15 22:44:03.413 DOMESTIC DISTURBANCE
17-0902835 1500 ARDEN LN 2017-09-15 22:40:52.267 PARKING VIOLATION
17-0902834 1200 BOB COURTWAY DR 2017-09-15 22:39:37.483 SUSPICIOUS VEHICLE
17-0902833 17-11283 2165 BLANEY HILL RD 2017-09-15 21:55:34.080 ROBBERY
17-0902831 501 ELSINGER BLVD 2017-09-15 21:32:18.327 RECKLESS DRIVER
17-0902828 2225 RAINTREE DR 2017-09-15 21:08:39.347 DOMESTIC DISTURBANCE
17-0902827 17-11282 825 OAK ST 2017-09-15 21:03:20.987 CHECKING PERSON
17-0902826 401 2ND ST 2017-09-15 21:03:19.110 SUSPICIOUS VEHICLE
17-0902825 475 ROBINS ST 2017-09-15 20:52:04.260 CHECK ON THE WELFARE
17-0902824 1908 DAVE WARD DR 2017-09-15 20:50:25.503 CIVIL MATTER
17-0902823 2875 SUMMERSET DR 2017-09-15 20:40:11.253 PARKING VIOLATION
17-0902822 601 ELSINGER BLVD 2017-09-15 20:30:38.347 LOUD NOISE-MUSIC
17-0902821 1055 HARKRIDER ST 2017-09-15 20:27:43.363 SUSPICIOUS ACTIVITY
17-0902820 17-11281 1010 MAIN ST 2017-09-15 20:17:38.737 HARASSMENT
17-0902819 1970 RICH SMITH LN 2017-09-15 20:02:47.120 DOMESTIC DISTURBANCE
17-0902818 17-11280 2730 DAVE WARD DR 2017-09-15 20:02:39.343 TERRORISTIC THREATENING
17-0902817 41 ECHO LN 2017-09-15 20:00:08.537 CIVIL MATTER
17-0902816 600 SALEM RD 2017-09-15 19:52:49.780 SUSPICIOUS VEHICLE
17-0902815 17-11279 150 E OAK ST 2017-09-15 19:51:43.440 THEFT OF PROPERTY
17-0902814 814 E OAK ST 2017-09-15 19:48:38.100 CHECK ON THE WELFARE
17-0902813 3202 NUTTERS CHAPEL RD 2017-09-15 19:42:33.667 RECKLESS DRIVER
17-0902812 17-11278 1730 OLD MILITARY RD 2017-09-15 19:41:59.253 ACCIDENT - PROPERTY DAMAGE
17-0902810 2730 DAVE WARD DR 2017-09-15 19:20:49.263 SUPPLEMENT REPORT CALL
17-0902809 17-11277 2200 WASHINGTON AV 2017-09-15 19:19:19.980 TRESPASSING
17-0902807 867 FENDLEY DR 2017-09-15 19:02:33.050 CHECK ON THE WELFARE
17-0902806 450 ROBINS ST 2017-09-15 18:57:48.420 CHECK ON THE WELFARE
17-0902805 370 CHEYENNE LN 2017-09-15 18:43:52.977 DOMESTIC DISTURBANCE
17-0902804 17-11276 504 4TH ST 2017-09-15 18:42:39.197 BURGLARY
17-0902803 1105 PRAIRIE ST 2017-09-15 18:32:55.100 HARASSING COMMUNICATIONS
17-0902802 595 2ND AV 2017-09-15 18:30:02.820 DOMESTIC DISTURBANCE
17-0902800 504 E OAK ST 2017-09-15 18:24:49.967 CHECK ON THE WELFARE
17-0902799 1637 DAVIS ST 2017-09-15 18:22:12.260 CIVIL STAND BY
17-0902798 1104 GUM ST 2017-09-15 18:16:36.793 HARASSMENT
17-0902796 17-11275 1101 OLD MORRILTON HWY 2017-09-15 17:32:15.717 ACCIDENT - PROPERTY DAMAGE
17-0902795 1115 MITCHELL ST 2017-09-15 17:15:34.907 CIVIL STAND BY
17-0902794 17-11274 1224 JERSEY ST 2017-09-15 17:14:55.777 SUSPICIOUS PERSON
17-0902792 17-11273 2730 DAVE WARD DR 2017-09-15 17:00:01.690 ACCIDENT - PRIVATE PROPERTY
17-0902791 17-11271 900 S AMITY RD 2017-09-15 16:57:46.030 ACCIDENT - PROPERTY DAMAGE
17-0902790 513 3RD ST 2017-09-15 16:54:07.300 SHOTS FIRED
17-0902789 475 ROBINS ST 2017-09-15 16:53:25.320 DISTURBANCE
17-0902787 1105 PRAIRIE ST 2017-09-15 16:49:49.893 FRAUD
17-0902786 17-11272 410 1ST AV 2017-09-15 16:49:11.387 PROPERTY DAMAGE
17-0902785 17-11270 601 DAVE WARD DR 2017-09-15 16:46:51.990 ACCIDENT - PROPERTY DAMAGE
17-0902784 2225 WILMINGTON DR 2017-09-15 16:46:25.973 SUSPICIOUS PERSON
17-0902783 17-11269 89 MARY LN 2017-09-15 16:45:31.070 BURGLARY
17-0902782 17-11268 400 S DONAGHEY AV 2017-09-15 16:40:49.730 ACCIDENT - PROPERTY DAMAGE
17-0902778 17-11267 2023 SIMMS ST 2017-09-15 16:23:26.747 FOUND PROPERTY
17-0902775 1805 OTT MEMORIAL BLVD 2017-09-15 16:16:45.377 AGENCY ASSIST
17-0902772 555 ELSINGER BLVD 2017-09-15 16:07:42.983 TERRORISTIC THREATENING
17-0902771 6 SPRING CIR 2017-09-15 16:04:03.477 ATTEMPT TO CONTACT
17-0902770 1702 CLIFTON ST 2017-09-15 15:52:39.467 MISSING PERSON
17-0902769 513 3RD ST 2017-09-15 15:49:27.460 UNKNOWN TROUBLE
17-0902768 17-11265 1057 HARKRIDER ST 2017-09-15 15:49:15.027 THEFT OF PROPERTY
17-0902767 17-11264 1155 SKYLINE DR 2017-09-15 15:43:35.267 ACCIDENT - PRIVATE PROPERTY
17-0902766 17-11263 2730 DAVE WARD DR 2017-09-15 15:42:54.527 BATTERY REPORT
17-0902764 955 SOUTH GERMAN LN 2017-09-15 15:35:04.110 UNKNOWN TROUBLE
17-0902759 127 I40EB 2017-09-15 15:02:41.393 STALLED VEHICLE
17-0902757 17-11255 1105 PRAIRIE ST 2017-09-15 14:55:21.677 AGENCY ASSIST
17-0902755 17-11258 1700 SOUTH BLVD 2017-09-15 14:53:26.250 ACCIDENT - PRIVATE PROPERTY
17-0902754 127 I40EB 2017-09-15 14:47:39.393 STALLED VEHICLE
17-0902748 17-11259 81 MARY LN 2017-09-15 14:31:37.690 HARASSMENT
17-0902742 1720 OLD MORRILTON HWY 2017-09-15 14:12:31.253 ALARM - HOLD UP or PANIC
17-0902737 4070 SERAPH DR 2017-09-15 13:51:49.207 CRIMINAL MISCHIEF
17-0902736 2730 DAVE WARD DR 2017-09-15 13:48:17.760 BURGLARY
17-0902735 1160 WINEBERRY RD 2017-09-15 13:47:12.923 ALARM
17-0902725 2730 DAVE WARD DR 2017-09-15 13:19:23.543 CHECK ON THE WELFARE
17-0902721 17-11251 1105 PRAIRIE ST 2017-09-15 12:58:59.003 AGENCY ASSIST
17-0902718 1815 PRINCE ST 2017-09-15 12:39:46.237 AGENCY ASSIST
17-0902717 1701 HARKRIDER ST 2017-09-15 12:34:08.370 TRAFFIC PROBLEM-CONTROL
17-0902715 6 SPRING CIR 2017-09-15 12:32:41.950 ATTEMPT TO CONTACT
17-0902713 912 CHESTNUT ST 2017-09-15 12:26:01.847 SUSPICIOUS PERSON
17-0902710 1600 WASHINGTON AV 2017-09-15 12:09:11.973 CITIZEN ASSIST
17-0902708 17-11250 999 FARRIS RD 2017-09-15 11:45:30.360 ACCIDENT - PROPERTY DAMAGE
17-0902706 650 SKYLINE DR 2017-09-15 11:36:39.967 SUSPICIOUS ACTIVITY
17-0902703 17-11248 500 ELSINGER BLVD 2017-09-15 11:25:49.310 FRAUD
17-0902697 150 E SIEBENMORGEN RD 2017-09-15 10:42:17.727 CHECKING PERSON
17-0902696 41 SANDSTONE DR 2017-09-15 10:35:40.900 ATTEMPT TO CONTACT
17-0902694 509 2ND ST 2017-09-15 10:16:20.910 SHOTS FIRED
17-0902689 1525 CLIFTON ST 2017-09-15 09:39:32.640 REPOSSESSION
17-0902688 220 E OAK ST 2017-09-15 09:38:58.530 SUPPLEMENT REPORT CALL
17-0902686 620 1ST ST 2017-09-15 09:29:49.920 ATTEMPT TO CONTACT
17-0902685 100 BROOKSIDE DR 2017-09-15 09:29:39.607 CIVIL MATTER
17-0902683 1600 E SIEBENMORGEN RD 2017-09-15 09:23:00.667 TRAFFIC PROBLEM-CONTROL
17-0902679 1700 MUSEUM RD 2017-09-15 08:59:37.633 CHECKING VEHICLE
17-0902678 600 5TH AV 2017-09-15 08:55:23.900 CHECKING VEHICLE
17-0902676 2105 KRYSTAL KREEK DR 2017-09-15 08:42:52.607 CHECKING BUILDING
17-0902674 959 FARRIS RD 2017-09-15 08:32:14.690 CHECKING VEHICLE
17-0902673 17-11247 1601 HOGAN LN 2017-09-15 08:28:08.593 LOST-STOLEN LICENSE PLATE
17-0902672 400 CENTRAL LANDING BLVD 2017-09-15 08:25:09.690 TRAFFIC PROBLEM-CONTROL
17-0902670 17-11246 1555 S HARKRIDER DR 2017-09-15 08:20:09.677 ACCIDENT - PROPERTY DAMAGE
17-0902667 17-11245 405 HOGAN LN 2017-09-15 08:12:08.787 THEFT OF VEHICLE
17-0902665 1001 SALEM RD 2017-09-15 08:08:43.020 CHECK ON THE WELFARE
17-0902664 115 I40EB 2017-09-15 07:57:08.930 RECKLESS DRIVER
17-0902663 2050 DAVE WARD DR 2017-09-15 07:54:32.490 VEHICLE TOW
17-0902660 1100 SKYLINE DR 2017-09-15 07:39:12.983 ALARM
17-0902658 105 COUNTRY CLUB RD 2017-09-15 07:00:56.630 CIVIL MATTER
17-0902656 2302 COLLEGE AV 2017-09-15 06:21:15.340 CHECK ON THE WELFARE
17-0902654 816 HOGAN LN 2017-09-15 04:22:22.870 LOG VEHICLE
17-0902653 955 SOUTH GERMAN LN 2017-09-15 03:43:50.717 ATTEMPT TO CONTACT
17-0902649 650 S MITCHELL ST 2017-09-15 02:42:29.380 CHECK ON THE WELFARE
17-0902648 401 2ND ST 2017-09-15 02:36:23.420 CHECKING PERSON
17-0902646 1803 HUTTO ST 2017-09-15 02:13:45.340 OPEN DOOR/WINDOW/FENCE
17-0902645 2200 MEADOWLAKE RD 2017-09-15 01:41:56.747 LOUD NOISE-MUSIC
17-0902643 815 E OAK ST 2017-09-15 01:15:00.743 ATTEMPT TO CONTACT
17-0902642 17-11242 515 HARKRIDER ST 2017-09-15 01:04:16.437 CHECKING PERSON
17-0902637 815 E OAK ST 2017-09-15 00:20:52.530 ATTEMPT TO CONTACT
17-0902634 2840 DAVE WARD DR 2017-09-15 00:11:05.570 CHECKING VEHICLE
17-0902633 1530 DAVIS ST 2017-09-15 00:01:51.730 SUSPICIOUS PERSON
Call Number Case Number Address Call Time Incident Type

General Contacts

POLICE HEADQUARTERS
1105 Prairie Street
Conway, AR 72032

Conway Police Department


  911 (EMERGENCIES ONLY)

  501.450.6120 (non-emergency)

ANONYMOUS TIPS
 Leave a message at 501.450.6135
 Text CONWAY and your tip to 274637 (CRIMES) Click for an Example

   

City of Conway

We, the members of the Conway Police Department, are committed to protecting and serving the citizens of Conway, Arkansas. That is our highest calling, as we pledge to join hands with others in carrying out our sworn duty to uphold the law.

Chief Jody Spradlin

Latest Tweets